ECMWFFLT2_con_mucape_000.txt.gz
CAPE
0 0 0 0 0 0 0 0 0 0 0 0 0 0 0 0 0 0 0 0 0 0 0 126 75 109 126 188 273 292 250 154 248 375 418 531 1332 1755 1834 1930 2220 2504 2756 2933 2964 2883 2927 2956 2856 2757 2814 2852 2864 2790 2686 2538 2297 2107 1928 1777 1598 1232 9
0 0 0 0 0 0 0 0 0 0 0 0 0 0 0 0 0 0 0 0 0 0 2 117 237 151 176 224 265 316 301 250 196 264 286 396 919 1505 1773 1845 2130 2561 2827 3015 3068 2889 2834 2855 2824 2721 2750 2783 2706 2597 2472 2375 2186 1976 1756 1556 1428 871 222
0 0 0 0 0 0 0 0 0 0 0 0 0 0 0 0 0 0 0 0 0 0 24 68 280 279 277 257 277 311 380 339 237 208 336 426 728 1145 1633 1842 2036 2586 2866 3032 3086 2960 2835 2810 2799 2680 2657 2688 2586 2440 2284 2163 2032 1840 1698 1488 1189 601 80
0 0 0 0 0 0 0 0 0 0 0 0 0 0 0 0 0 0 0 0 0 0 0 51 179 348 352 311 313 334 355 342 361 398 525 601 774 996 1382 1778 2030 2520 2858 3020 3056 2987 2878 2785 2742 2672 2614 2596 2453 2299 2166 2019 1832 1686 1540 1368 983 589 268
0 0 0 0 0 0 0 0 0 0 0 0 0 0 0 0 0 0 0 0 0 0 0 49 150 297 489 428 383 364 401 404 413 295 597 769 891 1031 1196 1546 1972 2457 2850 3020 3074 2976 2852 2743 2632 2578 2546 2515 2346 2124 1960 1836 1654 1506 1362 1246 816 612 548
0 0 0 0 0 0 0 0 0 0 0 0 0 0 0 0 0 0 0 0 0 0 0 81 193 279 406 497 448 374 440 525 540 516 600 754 910 1090 1168 1389 1792 2199 2633 2986 3013 2938 2816 2726 2573 2459 2462 2444 2266 2053 1858 1675 1488 1372 1234 1074 755 394 571
0 0 0 0 0 0 0 0 0 0 0 0 0 0 0 0 0 0 0 0 0 0 0 97 251 248 352 373 437 398 429 582 707 656 632 674 870 1087 1192 1216 1495 2081 2360 2634 2886 2871 2725 2651 2552 2390 2394 2339 2180 2002 1794 1582 1375 1297 1150 930 437 706 591
0 0 0 0 0 0 0 0 0 0 0 0 0 0 0 0 0 0 0 0 0 0 0 0 178 160 161 220 321 356 378 491 563 708 729 820 889 991 1097 1188 1217 1576 2126 2384 2538 2662 2592 2500 2464 2343 2330 2282 2114 1944 1775 1575 1379 1197 1000 638 661 791 708
0 0 0 0 0 0 0 0 0 0 0 0 0 0 0 0 0 0 0 0 0 0 0 0 0 0 0 0 198 268 316 341 440 583 741 783 808 960 1063 1133 1143 1330 1817 2187 2338 2439 2428 2341 2330 2279 2235 2184 2065 1905 1753 1582 1359 1216 1034 790 701 792 853
0 0 0 0 0 0 0 0 0 0 0 0 0 0 0 0 0 0 0 0 0 0 0 0 0 24 0 19 62 213 232 226 274 413 556 638 762 823 851 963 1090 1200 1535 1898 2157 2324 2336 2288 2217 2213 2130 2098 2006 1873 1744 1616 1430 1227 1053 838 845 854 834
0 0 0 0 0 0 0 0 0 0 0 0 0 0 0 0 0 0 0 0 0 0 0 0 0 0 71 35 0 15 187 356 438 708 795 792 1045 1058 968 947 1029 1200 1460 1894 2194 2291 2300 2265 2198 2159 2066 2007 1930 1814 1686 1546 1334 1114 954 903 996 913 877
0 0 0 0 0 0 0 0 0 0 0 0 0 0 0 0 0 0 0 0 0 0 0 0 0 0 0 0 82 257 348 816 892 967 1085 1440 1314 1456 1253 1113 1116 1317 1632 2031 2295 2351 2320 2258 2196 2113 1981 1852 1722 1610 1513 1420 1284 1098 895 1011 1128 1001 906
0 0 0 0 0 0 0 0 0 0 0 0 0 0 0 0 0 0 0 0 6 0 0 0 38 0 0 0 340 446 518 805 1104 1093 1170 1469 1540 1649 1746 1720 1476 1433 1650 1990 2264 2355 2340 2234 2154 2060 1911 1778 1604 1496 1407 1329 1140 962 860 1052 1184 1130 963
3 0 0 0 0 0 0 0 3 2 0 0 0 0 0 0 0 0 0 0 4 6 0 0 0 0 0 58 412 443 585 661 714 933 1196 1593 1762 1840 1728 1575 1527 1496 1617 1906 2173 2329 2294 2218 2103 1998 1813 1634 1530 1428 1330 1188 998 906 835 1028 1170 1146 1054
28 16 7 4 4 14 24 26 52 47 14 4 3 0 0 0 0 0 0 0 0 0 0 0 0 0 0 100 377 474 502 680 681 789 971 1664 1968 2010 1916 1658 1362 1398 1590 1813 2079 2207 2242 2197 2126 2004 1853 1661 1506 1370 1284 1188 1032 918 812 907 1116 1127 1047
42 46 38 34 17 30 62 62 64 52 24 26 33 39 18 2 1 0 0 0 0 0 0 2 0 0 0 95 129 227 362 517 559 701 736 859 2285 2353 2179 1980 1594 1227 1262 1437 1724 2090 2180 2166 2143 2082 2017 1895 1718 1587 1401 1188 904 838 765 790 967 1108 1122
53 46 36 32 34 54 60 26 29 46 17 7 15 25 22 19 6 2 3 3 0 0 2 2 1 16 66 77 114 164 153 203 283 475 690 822 1341 1288 1425 2053 1996 1736 1436 1339 1352 1662 2006 2120 2091 2046 2020 1946 1797 1619 1407 1134 856 802 677 729 906 1022 883
37 37 35 39 46 49 86 6 21 50 39 19 27 16 10 7 74 0 17 20 6 1 6 4 0 1 95 134 155 81 62 179 246 271 556 682 854 1106 1281 1454 1731 1872 1753 1580 1386 1366 1650 2021 2135 2047 1973 1892 1691 1524 1310 993 757 637 686 745 848 946 950
38 27 55 54 42 57 42 142 4 4 32 34 19 8 2 100 58 40 13 14 0 0 84 109 30 11 93 108 205 277 352 457 598 656 617 497 408 884 1409 1478 1604 1741 1739 1775 1609 1533 1500 1725 1986 2013 1935 1839 1730 1489 1212 782 912 1007 1058 1156 1136 1247 1106
29 18 30 60 42 180 33 32 14 8 14 28 10 18 0 5 10 24 22 1 0 0 118 173 198 195 260 248 224 212 186 149 188 310 452 522 505 437 614 1086 1575 1639 1719 1850 1913 1912 1830 1758 1826 2009 1995 1768 1496 1238 972 920 933 818 876 1087 1086 958 1128
14 18 25 47 52 43 44 72 32 15 9 8 32 48 10 9 15 83 68 134 210 295 304 235 200 30 31 168 238 146 132 235 290 383 552 576 499 744 717 524 548 1524 1777 1909 1961 2010 2079 2014 1932 1808 1716 1721 1601 1556 1652 1245 1080 1164 1118 992 1074 1184 974
22 41 32 32 43 54 46 47 50 16 14 3 62 147 6 165 4 95 5 12 29 251 314 304 263 198 156 72 222 304 294 354 419 531 721 828 872 1102 1224 1392 1278 974 1456 1852 1951 2025 2094 2288 2294 2244 2217 2234 2270 2022 1579 1410 1335 1356 1410 1325 1144 1274 1266
28 18 11 32 36 68 46 172 30 19 39 16 19 24 46 118 323 232 42 2 2 6 16 154 132 92 5 4 137 472 528 484 663 721 756 1026 1096 1396 1524 2012 2884 3298 2946 2586 2398 2057 2098 2156 2264 2293 2173 2052 1903 1721 1544 1373 1255 1261 1446 1528 1317 1237 1229
0 36 39 22 7 185 14 14 8 7 10 1 4 44 56 70 262 410 24 25 16 14 12 29 30 20 24 8 30 572 588 720 794 880 818 774 1076 1174 1184 1802 2382 2610 2787 2458 2330 2244 2166 2198 2172 2267 2332 2287 2068 1844 1710 1499 1316 1135 1205 1296 1102 1445 957
3 0 10 8 107 280 127 110 26 32 3 13 38 60 283 243 380 309 290 62 53 28 16 14 29 48 196 476 512 674 1016 986 650 651 484 808 1362 1373 1383 1846 1712 1413 1449 1642 1894 1996 2127 2290 2258 2256 2230 2242 2248 2108 1880 1700 1587 1400 1220 1073 936 789 632
12 6 0 0 313 61 75 15 195 256 110 34 64 144 306 234 312 293 80 293 267 298 328 330 350 433 532 579 460 297 422 820 858 731 720 414 687 1884 1913 1873 1387 1266 1365 1384 1792 1937 1981 2032 2021 2024 1998 1985 1997 1920 1767 1687 1659 1546 1315 992 846 954 1027
24 8 2 0 0 90 0 5 104 272 404 426 380 373 242 309 295 222 106 104 280 304 324 323 367 432 518 509 230 255 396 603 465 551 483 370 236 1480 1790 1820 1562 1400 1482 1492 1613 1916 1939 1872 1820 1847 1848 1941 1987 1973 1919 1800 1586 1391 1190 892 778 969 766
271 8 6 50 264 0 0 70 225 399 504 545 413 263 253 181 75 36 135 44 76 102 93 86 70 61 230 334 324 109 538 678 549 481 545 828 1757 1976 1994 2043 1710 1503 1351 1456 1557 1626 1714 1793 1877 1852 1794 1841 1834 1825 1776 1596 1443 1226 965 812 1136 1142 774
17 3 1 0 0 2 0 0 0 1 309 351 460 370 254 32 47 33 34 58 70 72 76 75 55 80 72 388 419 578 587 580 497 528 587 906 1402 1954 2483 2435 2158 1801 1411 1440 1511 1576 1574 1656 1680 1652 1568 1609 1637 1586 1422 1289 1167 1018 901 823 871 991 763
67 57 32 32 0 0 0 0 91 116 281 318 325 385 388 32 6 0 1 9 14 33 42 53 70 356 89 79 592 589 24 417 24 168 17 586 1010 1472 2110 2671 2550 2259 1912 1773 1754 1585 1480 1433 1378 1337 1450 1484 1454 1234 1265 1140 924 1021 900 790 738 483 436
10 33 0 20 8 0 0 0 210 328 321 304 246 294 283 286 0 0 2 0 0 4 46 30 744 796 577 110 294 523 447 692 785 455 149 118 770 1232 1853 2355 2424 2426 2158 1737 1424 1249 1196 1103 1158 1126 1082 990 814 463 458 501 537 654 634 429 395 390 488
2 25 46 161 38 0 0 74 223 329 312 365 301 293 341 240 120 89 140 34 20 32 10 6 29 818 847 566 172 725 1143 923 1120 808 565 475 661 1172 1593 2084 2053 2015 1747 1360 1170 1039 947 888 763 793 875 918 233 177 263 122 66 144 1 8 124 156 236
302 382 104 251 0 0 0 0 0 239 48 317 56 36 33 0 21 84 65 12 52 45 31 37 23 8 289 854 715 736 862 1185 1052 976 715 556 776 1104 1600 1787 1563 1314 1236 1248 1168 1102 928 934 881 741 629 566 384 92 20 0 0 0 0 0 0 0 30
360 121 58 122 0 0 0 0 0 66 160 150 54 36 25 29 19 12 16 14 4 5 0 0 0 0 258 862 928 606 527 834 1101 1079 967 927 841 886 1225 1409 1410 1347 1255 1235 1260 1239 989 903 852 787 749 499 408 0 0 0 0 0 1 235 24 65 88
92 220 84 27 0 7 23 35 30 28 19 12 16 34 52 52 40 16 8 23 33 46 12 0 0 0 0 0 624 900 704 753 1031 1285 1232 1027 892 810 899 1264 1474 1430 1346 1276 1262 1285 1191 980 791 585 454 17 0 0 3 162 249 30 4 36 47 6 92
160 110 124 102 33 73 93 92 80 41 22 18 32 56 64 39 20 2 0 0 0 0 0 0 0 0 0 0 212 948 1063 1046 1517 1740 1500 1073 886 806 875 1126 1386 1484 1328 1346 1448 1340 1028 811 640 493 167 222 314 170 78 45 8 0 0 0 2 5 76
134 258 7 5 0 21 24 43 62 49 22 3 0 0 0 0 0 0 0 0 0 0 0 0 0 0 0 0 58 550 842 1197 1544 1674 1445 1214 907 768 808 966 1207 1320 1212 1164 1043 840 618 186 0 0 0 0 0 0 0 34 60 99 75 0 0 0 11

ECMWFFLT2_con_mucape_006.txt.gz
CAPE
0 0 0 0 0 0 0 0 0 0 0 0 0 0 0 0 0 0 0 0 0 0 0 0 0 0 0 0 0 0 1 72 96 129 134 210 346 436 608 818 1034 1235 1409 1635 1834 1896 1907 1940 1981 2059 2125 2152 2161 2132 2114 2111 2134 2142 2175 2212 2216 2253 2368
0 0 0 0 0 0 0 0 0 0 0 0 0 0 0 0 0 0 0 0 0 0 0 0 0 0 0 0 0 0 4 4 53 42 134 210 404 522 648 816 1026 1236 1422 1592 1809 1993 2036 2019 2038 2085 2166 2238 2277 2270 2229 2216 2214 2206 2166 2096 2084 2121 2249
0 0 0 0 0 0 0 0 0 0 0 0 0 0 0 0 0 0 0 0 0 0 0 0 0 0 0 0 0 0 0 2 18 62 114 197 390 584 717 858 1012 1214 1441 1606 1746 1936 2102 2138 2123 2122 2172 2263 2334 2374 2370 2311 2273 2234 2148 2015 1961 2046 2218
0 0 0 0 0 0 0 0 0 0 0 0 0 0 0 0 0 0 0 0 0 0 0 0 0 0 0 0 0 0 0 5 17 31 62 157 342 602 801 908 1025 1196 1428 1662 1801 1894 2048 2192 2238 2238 2240 2270 2345 2413 2432 2376 2247 2160 2071 1942 1880 1920 2037
0 0 0 0 0 0 0 0 0 0 0 0 0 0 0 0 0 0 0 0 0 0 0 0 0 0 0 0 1 0 0 2 13 27 103 158 286 508 796 970 1072 1212 1410 1678 1881 1950 2010 2138 2256 2314 2312 2321 2356 2381 2372 2298 2190 2082 2014 1940 1826 1792 1776
0 0 0 0 0 0 0 0 0 0 0 0 0 0 0 0 0 0 0 0 0 0 0 0 0 0 0 0 5 10 3 8 9 32 104 148 250 388 673 954 1130 1245 1410 1658 1914 2049 2089 2121 2209 2304 2354 2367 2382 2358 2288 2261 2220 2115 1992 1910 1806 1707 1624
0 0 0 0 0 0 0 0 0 0 0 0 0 0 0 0 0 0 0 0 0 0 0 0 0 0 0 1 2 15 9 8 22 21 39 152 222 338 506 829 1130 1312 1428 1642 1896 2099 2205 2227 2256 2294 2375 2390 2402 2391 2323 2296 2274 2213 2053 1910 1772 1671 1509
0 0 0 0 0 0 0 0 0 0 0 0 0 0 0 0 0 0 0 0 0 0 0 0 0 0 0 5 8 58 61 13 89 24 32 174 228 320 428 658 1020 1302 1482 1657 1875 2096 2236 2307 2315 2332 2373 2410 2443 2428 2376 2342 2310 2295 2176 1933 1737 1596 1482
0 0 0 0 0 0 0 0 0 0 0 0 0 0 0 0 0 0 0 0 0 0 0 0 0 0 4 15 22 57 89 94 112 122 114 201 253 308 387 548 861 1162 1426 1667 1885 2078 2232 2330 2381 2417 2430 2463 2495 2484 2460 2414 2388 2371 2270 2040 1758 1569 1407
0 0 0 0 0 0 0 0 0 0 0 0 0 0 0 0 0 0 0 0 0 0 0 0 0 0 9 5 111 113 90 107 155 174 194 229 286 339 374 467 725 1041 1270 1535 1796 2024 2215 2333 2402 2455 2495 2508 2530 2546 2554 2524 2498 2432 2338 2132 1831 1572 1340
0 0 0 0 0 0 0 0 0 0 0 0 0 0 0 0 0 0 0 0 0 0 0 0 0 0 6 18 7 66 29 130 202 209 225 250 280 332 396 447 566 868 1176 1387 1599 1850 2104 2299 2410 2477 2525 2550 2580 2596 2624 2618 2564 2497 2390 2218 1958 1652 1356
0 0 0 0 0 0 0 0 0 0 0 0 0 0 0 0 0 0 0 0 0 0 0 0 0 0 0 0 0 77 209 221 224 223 246 306 351 376 432 464 488 655 978 1259 1491 1688 1899 2122 2323 2460 2526 2562 2594 2646 2678 2679 2652 2583 2518 2387 2184 1862 1510
0 0 0 0 0 0 0 0 0 0 0 0 0 0 0 0 0 0 0 0 0 0 0 0 0 0 0 0 0 160 252 244 270 299 286 314 332 361 436 470 480 528 690 1010 1327 1558 1742 1945 2176 2358 2500 2572 2594 2650 2688 2689 2718 2663 2572 2492 2344 2151 1838
0 0 0 0 0 0 0 0 0 0 0 0 0 0 0 0 0 0 0 0 0 0 0 0 0 0 0 0 0 168 222 293 339 342 342 364 376 381 393 452 492 527 602 714 986 1296 1587 1839 2055 2269 2418 2526 2636 2693 2701 2717 2727 2728 2652 2596 2520 2422 2285
0 0 0 0 0 0 0 0 0 0 0 0 0 0 0 0 0 0 0 0 0 0 0 0 0 0 0 0 0 110 242 332 379 387 406 424 435 408 414 446 476 512 579 644 730 939 1295 1634 1939 2170 2335 2481 2609 2710 2724 2741 2729 2708 2694 2672 2635 2586 2499
0 0 0 0 0 0 0 0 0 0 0 0 0 0 0 0 0 0 0 0 0 0 0 0 0 0 0 0 0 57 193 334 443 456 452 474 459 448 441 482 510 539 569 612 667 790 1001 1368 1734 1990 2195 2388 2550 2672 2722 2740 2728 2706 2712 2705 2664 2615 2508
0 0 0 0 0 0 0 0 0 0 0 0 0 0 0 0 0 0 0 0 0 0 0 0 0 0 0 0 0 0 126 252 402 511 536 514 487 476 478 505 575 605 612 628 687 796 896 1128 1434 1708 1936 2153 2346 2499 2608 2656 2669 2691 2721 2729 2726 2647 2582
0 0 0 0 0 0 0 0 0 0 0 0 0 0 0 0 0 0 0 0 0 0 0 0 0 0 0 0 0 0 74 176 261 418 509 487 470 475 517 558 612 629 638 672 732 794 873 958 1127 1366 1675 1957 2137 2271 2390 2458 2530 2598 2631 2669 2668 2660 2582
0 0 0 0 0 0 0 0 0 0 0 0 0 0 0 0 0 0 0 0 0 0 0 0 0 0 0 0 0 0 0 97 184 255 366 473 492 478 488 498 542 624 678 741 848 875 884 927 1048 1285 1554 1760 1957 2076 2169 2251 2317 2420 2491 2524 2531 2550 2567
0 0 0 0 0 0 0 0 0 6 0 0 2 4 0 0 0 0 0 0 0 0 0 0 0 0 0 0 0 0 0 1 136 219 262 332 425 496 539 578 682 702 761 851 898 986 980 1043 1132 1363 1564 1701 1854 1970 2014 2114 2183 2247 2311 2343 2334 2342 2378
4 0 0 0 0 7 1 0 4 0 4 5 6 8 9 9 9 6 0 0 0 0 1 4 1 0 0 0 0 0 0 0 123 234 298 451 588 742 877 906 955 970 1046 1107 1108 1094 1078 1058 1175 1372 1566 1743 1875 1938 1988 2058 2105 2148 2170 2190 2210 2222 2224
12 10 8 10 13 16 0 0 0 38 64 86 46 17 20 32 44 16 57 2 0 0 2 1 0 0 1 7 0 112 301 399 465 447 566 649 816 1014 1134 1270 1300 1316 1282 1221 1168 1143 1072 1007 1045 1217 1479 1729 1868 1932 1960 2008 2018 2056 2039 2048 2026 2028 2030
34 35 22 20 82 16 0 46 0 74 70 118 96 20 29 68 66 132 92 35 8 10 19 10 0 19 86 104 196 367 514 599 630 657 861 1119 1146 993 1089 772 642 1063 1270 1233 1177 1024 1086 1051 970 1053 1338 1614 1762 1837 1831 1803 1790 1762 1732 1700 1697 1729 1713
26 53 48 50 36 136 22 40 63 65 159 100 55 61 76 48 144 124 43 10 5 0 6 0 0 34 205 252 361 533 486 506 675 899 830 1030 1302 1275 908 426 396 860 1135 1210 1126 1143 1076 1107 1078 998 1228 1468 1591 1632 1644 1666 1652 1594 1562 1596 1548 1524 1460
40 55 68 66 59 156 140 96 74 57 66 79 32 60 156 140 131 148 128 125 65 12 12 7 0 0 233 304 336 392 548 701 806 1148 1485 1664 1447 1204 1036 1114 1233 1212 1213 1242 1165 1221 1166 1209 1173 1233 1336 1406 1431 1466 1536 1525 1524 1498 1476 1444 1452 1422 1354
48 76 81 84 68 43 114 102 72 61 40 15 71 194 112 158 131 141 120 53 58 0 0 10 0 122 196 226 242 429 484 483 560 774 1046 1140 1100 1016 974 1109 1172 1116 1143 1162 1111 1203 1227 1324 1367 1459 1468 1431 1429 1388 1446 1526 1563 1501 1496 1458 1388 1310 1229
44 57 72 75 233 81 362 294 184 36 46 139 0 86 134 147 149 121 59 118 155 145 0 16 180 160 164 254 362 397 384 432 466 519 744 977 1129 1092 978 897 884 914 928 954 912 1024 1044 1230 1453 1560 1541 1499 1487 1459 1396 1470 1456 1456 1400 1358 1223 1081 994
119 58 87 52 28 59 67 145 88 44 20 10 59 103 156 140 140 140 79 15 149 102 0 0 105 84 46 276 328 342 365 312 292 340 472 517 784 1044 978 953 895 932 944 954 1026 979 1115 1182 1278 1430 1513 1554 1549 1516 1476 1315 1252 1218 1136 1003 965 1082 1004
6 4 40 203 289 90 119 88 63 38 32 33 30 24 79 16 0 119 10 1 28 0 122 195 230 283 287 293 305 327 334 328 328 298 74 304 321 679 774 743 824 713 820 898 1046 1062 1148 1190 1254 1338 1460 1566 1537 1474 1340 1233 1190 1143 1093 1120 1176 1075 847
7 0 8 104 48 100 116 93 37 0 2 15 66 113 24 14 6 2 4 9 0 0 0 27 219 254 282 341 360 222 146 116 22 0 138 0 2 360 735 811 857 832 872 944 944 1021 1152 1270 1345 1440 1532 1612 1626 1579 1477 1384 1326 1208 1217 1178 1168 1078 775
0 7 0 0 50 96 68 39 98 64 0 0 96 153 21 22 4 0 0 0 10 0 0 0 12 34 52 50 40 244 29 0 24 6 1 0 0 128 473 789 982 894 889 888 912 922 1080 1288 1414 1546 1566 1602 1647 1614 1540 1431 1289 1125 1036 1062 1119 1106 922
0 9 3 1 0 12 17 24 9 39 66 90 4 0 39 27 40 3 0 0 0 0 0 0 0 0 0 10 6 0 0 0 0 0 0 41 96 211 249 495 714 704 722 806 744 686 767 898 995 1192 1437 1462 1530 1580 1518 1304 1067 935 960 1011 1078 993 850
0 0 0 0 0 3 0 12 7 0 0 70 26 0 0 0 132 95 37 26 0 0 0 0 0 0 0 0 0 0 0 169 176 63 2 10 316 305 298 115 568 688 647 623 558 452 510 542 578 730 1223 1363 1493 1270 1057 847 803 842 914 914 826 725 624
0 0 0 0 0 4 0 0 0 0 0 0 0 14 24 36 77 89 126 108 0 1 19 41 27 6 0 0 1 15 20 22 12 29 306 529 686 710 601 40 412 614 246 150 43 1 0 0 303 767 1020 1104 1060 859 626 586 622 665 646 563 469 201 4
0 0 0 0 0 0 0 0 0 0 0 0 0 0 0 0 0 0 0 0 0 26 45 4 9 2 6 61 42 20 16 23 194 608 693 773 856 1054 908 642 456 500 462 213 46 44 593 703 711 764 854 888 854 624 0 0 343 334 331 0 0 0 0
2 0 0 0 0 0 0 0 0 0 0 0 0 0 0 0 0 0 0 0 0 0 0 0 0 0 0 0 0 1 0 0 0 0 345 582 632 678 759 694 611 595 614 652 676 675 616 553 592 562 654 703 653 475 0 0 0 0 0 0 0 0 0
1 0 0 0 0 0 0 0 0 0 0 0 0 0 0 0 0 0 0 0 0 0 0 0 0 0 0 0 0 0 0 0 0 0 0 186 444 538 615 638 642 559 588 665 681 674 581 524 517 541 546 613 547 426 401 259 0 0 0 0 0 0 0

ECMWFFLT2_con_mucape_009.txt.gz
CAPE
0 0 0 0 0 0 0 0 0 0 0 0 25 0 0 0 0 0 13 0 0 1 1 10 32 39 60 254 124 71 100 225 473 468 477 546 590 663 863 1030 1220 1558 1663 1834 1868 1972 1889 1950 2116 2297 2649 2808 2747 2795 2898 3077 3216 3357 3458 3416 3444 3406 3370
0 0 0 0 0 0 0 0 0 0 0 18 1 1 17 0 0 8 0 0 0 0 0 588 12 21 36 114 280 98 135 399 362 418 660 691 618 672 894 1167 1455 1638 1669 1806 1807 1921 1925 2009 2142 2476 2870 2888 2880 2924 2894 3009 3154 3275 3347 3417 3369 3410 3292
0 0 0 0 0 0 0 0 0 0 0 0 145 22 2 0 0 0 0 0 0 0 0 4 24 105 111 360 566 132 173 202 274 410 673 796 717 693 867 1036 1378 1412 1568 1764 1901 1870 1948 2155 2458 2744 2944 2894 2887 2993 2950 2805 3014 3078 3184 3190 3293 3324 3176
0 0 0 0 0 0 0 0 0 0 0 8 2 0 58 0 0 0 0 0 0 0 0 0 0 19 662 397 635 207 115 220 376 472 534 782 847 858 867 852 1052 1282 1474 1663 1787 1892 1990 2246 2586 2646 2682 2604 2644 2770 2935 2924 2880 3112 3117 3182 3234 3079 2914
0 0 0 0 0 0 0 0 0 0 0 0 2 3 0 0 4 0 0 0 0 0 4 2 7 58 203 245 492 922 572 301 369 506 581 815 894 966 936 935 1052 1203 1377 1501 1694 1944 2114 2322 2584 2465 2410 2527 2565 2635 2832 2876 2980 3032 3067 3142 3115 3126 3029
0 0 0 0 0 0 0 0 0 0 0 0 0 0 0 0 0 2 0 0 0 0 0 14 92 177 70 243 338 538 555 488 444 482 519 899 982 1173 1193 1047 1060 1138 1356 1521 1633 1916 2194 2385 2477 2435 2402 2492 2573 2671 2757 2856 2795 2917 2821 2979 3183 3130 3014
0 0 0 0 0 0 0 0 0 0 0 0 0 0 0 0 0 0 13 0 0 0 0 0 36 33 2 42 86 144 273 526 377 402 325 710 1099 1112 1046 1153 1077 1184 1474 1684 1846 2238 2506 2583 2722 2619 2546 2559 2634 2715 2791 2874 2876 2934 2842 2938 3144 3190 2971
0 0 0 0 0 0 0 0 0 0 0 0 0 0 61 0 0 0 0 0 0 0 17 68 24 382 161 431 63 286 316 476 424 400 338 684 1029 1265 1157 1157 1194 1437 1739 1935 2287 2667 2840 2850 2885 2758 2814 2799 2712 2740 2790 2838 2891 2968 2969 2929 3014 3095 2936
0 0 0 0 0 0 0 0 0 0 0 0 1 3 32 0 0 0 0 0 0 0 116 293 7 0 0 0 25 299 454 969 568 564 712 810 1209 1372 1188 1388 1651 1914 1736 2138 2586 2644 2942 3026 2881 3025 2992 3008 2845 2882 2849 2819 2881 2917 3013 2993 2906 2894 2762
0 0 0 0 0 0 0 0 0 0 0 0 0 0 0 0 53 0 0 0 0 243 149 57 294 304 208 74 96 192 361 768 628 621 723 1036 1169 1374 1398 1658 1908 1838 2071 2422 2632 2802 2998 2868 2754 3072 3128 2987 2940 2989 3047 2915 2902 2960 2943 2974 2884 2791 2662
0 0 0 0 0 0 0 0 0 0 0 0 0 11 1 0 14 0 0 0 0 0 0 0 15 460 298 214 568 341 605 636 761 1016 996 909 1152 1312 1153 1571 1793 2393 2525 2424 2606 2909 2876 2757 2922 3130 3023 2912 2907 3127 3192 3028 2979 3016 3093 3049 3051 2776 2590
0 0 0 0 0 0 0 0 0 0 0 0 0 0 0 2 0 0 0 0 0 0 8 49 148 480 1142 1352 1208 974 1014 998 880 720 1042 922 868 1009 1443 1602 1758 1942 2359 2697 2830 2903 2816 2934 3170 3133 3010 3001 3081 3228 3298 3146 3048 3047 3128 3210 3155 2944 2655
0 0 0 0 0 0 0 0 0 0 0 0 0 0 0 48 0 0 0 0 0 0 0 22 158 610 893 840 1125 928 909 997 923 780 638 622 655 964 1064 1465 1846 2125 2370 2689 2758 2828 2947 3015 3124 3132 3148 3190 3297 3434 3234 3252 3076 3133 3221 3318 3284 3038 2632
0 0 0 0 0 0 0 0 0 0 0 0 0 0 0 0 0 0 8 24 0 0 0 0 117 452 419 1053 1141 630 488 547 790 674 850 720 718 822 1056 1384 1522 1987 2244 2544 2790 2926 3088 3030 3188 3137 3255 3417 3403 3372 3253 3253 3361 3204 3272 3442 3408 3121 2756
0 0 0 0 0 0 0 0 0 0 0 0 0 0 0 0 0 0 0 152 90 0 0 43 403 1200 499 324 202 320 768 1039 946 856 780 817 823 890 1149 1505 1521 1697 1960 2286 2534 2774 2891 3046 3187 3254 3352 3451 3342 3128 3135 3205 3311 3260 3282 3505 3394 3189 2832
0 0 0 0 0 0 0 0 0 0 0 0 0 0 0 0 0 0 8 6 0 1 41 14 87 156 267 313 729 825 959 804 1083 1035 1053 1102 1180 1124 1222 1429 1285 1573 1674 1970 2277 2512 2627 2861 3074 3208 3445 3411 3435 3194 3156 3155 3135 3168 3220 3269 3249 3339 3115
0 0 0 0 0 0 0 0 0 0 0 0 0 0 0 0 0 0 0 0 0 1 127 19 44 36 228 388 554 908 1024 1168 1016 1246 1442 1378 1416 1380 1866 1680 1540 1344 1322 1542 2003 2115 2292 2502 2748 2898 3272 3120 3307 3333 3349 3339 3288 3208 3248 3307 3396 3466 3276
2 4 0 0 0 0 0 0 0 0 0 0 0 0 0 0 0 0 0 0 172 96 0 0 49 143 372 704 841 573 870 944 940 1028 1476 1579 1564 1584 1476 1360 1245 1392 1506 1392 1609 1849 2249 2450 2458 2763 2841 2927 3178 3225 3380 3578 3454 3357 3352 3348 3410 3460 3384
21 22 0 0 0 0 7 50 0 0 0 0 0 62 177 24 4 0 0 0 4 76 37 124 517 552 218 198 382 258 242 358 562 900 914 1204 1199 1304 1345 1346 1134 1674 1778 1892 1778 1816 1624 1680 2023 2336 2696 2934 3431 3450 3519 3550 3526 3649 3484 3434 3320 3325 3109
30 0 9 1 1 18 44 6 16 0 0 0 18 19 39 60 41 58 6 11 206 199 45 8 16 268 350 270 376 356 270 365 503 472 624 885 784 884 1079 1493 1791 1966 1478 1541 1448 1692 1537 1920 2344 2380 2634 2714 2809 2863 3130 3377 3373 3403 3493 3400 3233 3124 2950
36 105 19 29 155 41 22 61 43 30 2 0 0 0 6 62 13 42 77 220 190 110 53 80 4 298 339 470 398 226 145 243 272 414 550 591 678 794 1390 1198 1315 1696 1640 1726 1488 2286 2141 1941 2168 2100 2270 2450 2552 2721 2881 3084 3319 3200 3192 3274 3144 3021 2753
0 26 15 23 15 16 141 79 58 9 0 10 40 386 170 0 17 0 9 115 242 180 103 62 64 351 236 244 408 346 177 118 268 306 570 830 1164 1380 1281 1581 1752 2102 2096 2014 2254 1725 2137 2034 2143 2306 2338 2327 2749 2869 2901 3108 3096 3048 3049 3159 3115 2988 2783
32 36 8 26 10 72 332 169 39 12 1 20 92 61 82 16 4 0 0 38 44 130 104 252 229 370 233 497 584 269 312 335 332 684 796 902 1211 1504 1564 1520 1562 1617 1976 1893 1605 1929 1918 1852 1997 2278 2339 2500 2794 3057 3055 2732 2808 2934 2968 3089 3036 2856 2740
60 110 27 24 267 310 210 80 50 13 32 3 84 5 98 240 7 0 18 14 28 81 268 158 568 699 783 830 590 315 742 1171 1620 1927 1947 1715 1450 1352 1456 1722 1973 2048 2032 2022 1911 1787 1870 1932 1840 2424 2594 2824 3037 2989 2629 2416 2566 2701 2698 2753 2671 2546 2494
6 6 13 15 283 265 104 46 34 41 50 123 75 18 395 95 104 91 166 56 130 320 492 595 401 250 490 524 690 942 1259 1502 1546 1567 1594 1681 1770 1776 1718 1702 1762 1936 1941 1992 1900 1887 2086 2000 1831 2044 2296 2566 2501 2310 2090 2112 2126 2003 2086 2127 2158 2248 2069
109 288 8 35 379 157 12 54 29 133 115 142 188 172 8 204 190 229 243 301 310 376 415 322 288 472 702 943 960 890 1112 1343 1608 1602 1379 1278 1292 1379 1554 1688 1704 1802 1863 1881 1735 1695 1841 1927 1992 2150 2402 2383 2170 2054 2021 2115 1890 1571 1598 1786 1837 1862 1787
144 258 253 2 12 379 59 42 190 226 468 567 227 171 115 142 165 164 160 184 192 130 150 258 404 576 696 744 706 595 469 749 1146 1418 1372 1341 1314 1422 1442 1384 1483 1569 1568 1311 1154 1216 1374 1557 1786 1900 2089 2139 1922 1822 2042 1650 1414 1436 1528 1583 1678 1679 1611
851 132 276 132 241 274 0 117 418 495 341 233 262 141 231 172 120 70 123 129 127 132 155 234 330 468 615 697 598 426 368 327 711 1247 1556 1440 1150 936 924 1056 1085 1124 1204 1159 1194 1264 1364 1564 1753 1860 2207 1984 1809 1882 1750 1353 1272 1350 1455 1584 1596 1529 1296
757 630 309 326 74 17 16 127 158 91 108 90 200 208 221 226 194 234 168 150 119 124 194 250 262 379 502 600 488 342 326 327 352 608 1106 1406 1164 974 1008 1007 1070 1009 1051 1015 1024 1074 1118 1236 1294 1681 1914 1904 1604 1658 1302 1191 1147 1283 1395 1424 1416 1272 1073
124 150 71 60 18 40 29 20 76 54 14 20 74 226 191 218 213 186 143 23 93 99 111 204 272 341 410 466 492 377 342 296 566 999 1081 1238 1477 1295 1222 1409 1420 1304 1289 1325 1313 1147 1090 1102 1112 1578 1954 1935 2062 1739 1230 1209 1125 1277 1286 1326 1216 1138 1018
257 124 10 104 69 52 85 88 68 88 75 88 73 205 208 187 212 186 182 148 132 125 148 212 257 299 325 384 440 654 774 716 732 700 806 848 944 1182 1284 1245 1458 1608 1401 1262 1138 1248 1198 902 1073 1104 1482 1725 1976 1160 1016 1118 1153 1268 1289 1160 1022 861 858
420 187 92 27 31 32 49 62 76 60 42 24 50 57 77 194 208 215 208 163 158 158 170 196 230 264 355 561 591 372 669 816 937 1060 1078 1150 1050 1020 979 1044 1278 1576 1632 1353 1468 1634 1915 1416 1319 1218 1204 1206 1132 893 909 1010 1122 1180 1169 1022 886 848 727
346 104 13 0 0 24 45 108 80 41 37 22 53 154 77 57 74 194 189 156 189 181 234 254 259 258 272 322 460 380 772 944 1102 1222 1386 1461 1492 1538 1192 910 1054 1463 1808 1928 1959 1952 1732 1170 1072 1042 947 851 910 878 1021 1097 1146 941 876 757 766 736 649
26 0 0 10 41 8 6 32 53 122 84 54 88 144 164 157 168 113 125 155 211 188 222 272 261 304 284 292 336 350 350 609 906 1158 1294 1409 1570 1540 1198 1181 1469 1324 1130 1352 1346 1268 1080 828 834 824 702 699 782 827 1021 1030 828 862 824 707 916 911 835
69 22 0 49 192 0 0 0 1 17 62 89 116 136 161 104 93 109 103 85 67 55 94 140 76 212 236 267 282 331 332 334 366 748 1037 1272 1402 1414 1275 1372 1278 1429 1531 1228 1112 997 987 600 527 454 597 630 750 814 880 715 724 954 1038 1027 933 898 765
0 0 0 0 0 0 0 0 0 0 0 6 34 27 89 26 98 99 78 72 66 63 25 48 69 47 11 92 118 101 126 236 202 93 368 784 1032 996 903 1008 1203 1248 1221 1244 1106 1082 827 520 386 379 484 614 742 712 733 813 915 1207 1195 1057 1011 891 812
0 0 0 0 0 0 0 0 0 0 0 0 0 11 28 0 0 0 18 22 23 14 3 0 0 2 0 21 29 28 4 14 8 0 0 109 209 583 677 664 918 1176 1135 1013 1014 860 544 496 448 456 490 534 547 510 662 757 923 1073 1116 1086 979 974 964

ECMWFFLT2_con_mucape_015.txt.gz
CAPE
0 0 0 0 0 0 0 0 0 0 0 0 12 17 2 6 2 7 4 1 0 0 0 0 0 0 0 0 0 0 4 5 20 0 404 1005 744 568 988 1444 1901 1784 1720 2302 2425 2391 2197 2164 1968 1823 2029 2137 2469 2776 3043 3409 3987 4350 4373 4489 4597 4496 4416
0 0 0 0 0 0 0 0 0 0 0 0 30 25 35 3 2 7 1 2 3 0 0 0 0 0 0 0 0 0 18 4 2 0 0 628 990 950 836 1703 2141 2040 1763 2134 2296 2270 2261 2242 2251 2181 2341 2339 2446 2497 2732 3400 4153 4418 4313 4530 4779 4645 4688
0 0 0 0 0 0 0 0 0 0 0 0 0 24 41 22 17 8 4 0 1 13 0 7 0 0 3 24 3 0 3 4 0 0 0 183 808 642 946 1690 2060 2240 1956 2092 2425 2158 2026 2192 2767 2604 2208 2385 2551 2406 2579 3389 4191 4130 4089 4317 4646 4907 4781
0 0 0 0 0 0 0 0 0 0 0 0 0 6 1 6 30 11 16 2 10 7 0 0 0 0 4 25 4 0 0 0 11 5 0 43 558 709 1125 1742 1975 2256 2283 2267 2305 2126 1988 2396 2786 2582 2298 2445 2508 2349 2716 3206 3723 3936 3796 3788 4428 4962 4885
0 0 0 0 0 0 0 0 0 0 0 0 0 10 10 15 14 9 3 28 0 4 2 0 0 11 3 6 2 0 0 1 3 0 0 7 432 1166 1173 1722 2064 2341 2496 2440 2452 2186 1807 1942 2530 2582 2240 2353 2469 2335 2597 2742 3134 3532 3439 3332 3657 4861 4843
0 0 0 0 0 0 0 0 0 0 0 0 0 0 0 8 18 11 9 7 27 1 0 3 1 2 8 0 0 0 0 1 32 30 20 0 204 1503 1652 1538 1848 2297 2612 2648 2562 2300 1616 1575 2173 2283 2061 2203 2334 2026 2044 2220 1951 2847 2818 2883 3391 4694 5074
0 0 0 0 0 0 0 0 0 0 0 0 0 0 2 3 10 8 27 30 24 6 13 36 1 0 0 9 7 20 10 13 11 6 9 108 1186 1743 1680 1479 1178 1819 2625 2726 2646 2594 2068 1588 2148 2342 1698 1427 1502 1468 1530 1923 1521 1947 2183 2276 2867 4343 5036
0 0 0 0 0 0 0 0 0 0 0 0 0 0 0 0 0 16 15 18 2 9 1 5 0 0 0 1 2 0 6 5 0 5 11 1582 1087 2016 1837 1383 834 1422 2358 2853 3174 3030 3017 2575 2730 2524 1430 1031 1025 1002 1169 1570 1511 1408 1572 1582 2380 4044 5109
0 0 0 0 0 0 0 0 0 0 0 0 0 0 0 1 1 12 14 5 4 21 16 7 4 0 0 0 0 0 0 8 2 10 38 34 20 1839 2141 1781 1514 1766 2046 2917 3568 3645 3866 3498 2248 2782 1921 966 832 929 978 1085 1454 1207 1278 1339 1882 3736 4893
0 0 0 0 0 0 0 0 0 0 0 0 0 0 0 0 0 38 16 0 2 0 90 0 0 0 1 2 0 0 0 0 0 7 31 1241 1079 2882 2951 2293 1652 1864 2832 3583 4282 4179 4522 3388 2648 3605 2924 1136 740 912 1046 988 1180 1328 1220 1319 1466 2942 4491
0 0 0 0 0 0 0 0 0 0 0 0 0 0 0 0 0 0 1 8 31 42 4 2 1 0 1 1 0 0 0 9 22 114 2888 1982 2450 3189 2952 2506 2122 2718 3392 3729 3772 4086 3751 3292 3149 3272 2833 1939 902 1614 1478 1089 1066 1348 1561 1304 1841 2028 4062
1 0 0 0 0 0 0 0 0 0 0 0 0 0 0 0 0 0 0 6 3 0 1 5 16 6 2 0 0 0 0 0 0 11 4023 3244 3081 3322 3162 2734 2630 2782 3150 3387 3739 3858 3807 3702 3711 3673 3302 2720 1953 1893 1542 1517 1184 1146 1498 2042 1990 1978 3162
0 0 0 0 0 0 0 0 0 0 0 0 0 0 0 0 0 0 0 2 4 0 0 0 1 4 8 0 0 1 0 0 3 122 427 1983 3155 3414 3280 3292 3204 3062 2918 3679 3904 3863 4077 4081 3988 3869 3778 3620 3456 2865 2397 2527 1572 1246 1985 2563 2858 2462 3000
0 0 0 0 0 0 0 0 0 0 0 0 0 0 0 0 0 0 0 6 1 0 0 0 0 0 4 0 0 0 0 4 20 0 6 0 55 2123 3608 3731 3395 3582 3674 4084 4252 4160 4472 4194 4223 3979 4112 4150 3805 3641 3428 2990 2508 1666 2060 2912 3817 3344 3409
0 0 0 0 0 0 0 4 0 0 0 0 0 0 0 0 0 0 0 0 0 0 0 0 0 0 0 13 4 0 0 0 0 0 0 0 13 119 1334 3927 3781 3888 4122 4400 4549 4531 4474 4108 4262 4321 4521 4323 4089 3853 3636 3303 3206 2242 2089 3921 3789 4020 4262
2 6 18 3 0 0 0 0 4 0 0 0 0 0 0 0 0 0 0 0 0 0 0 0 0 0 0 0 32 47 16 0 3 0 0 0 0 0 10 1582 4122 4398 4395 4674 4897 4666 4438 4227 4395 4583 4855 4556 4149 3637 3650 3583 3471 2755 2716 3830 4132 4773 4706
63 33 10 2 0 5 0 0 0 0 0 0 0 0 0 0 0 0 0 0 0 0 0 0 0 0 0 0 1 22 134 376 106 6 0 0 1 0 182 940 4230 4379 4331 4797 5232 4782 4610 4453 4742 4740 4916 4496 4506 3944 4148 3932 3849 3381 3547 4381 4962 5200 5204
74 39 12 23 62 13 0 0 0 0 0 0 0 0 0 0 0 0 0 0 0 0 0 0 0 0 0 1 78 116 116 174 388 6 4 0 0 0 84 819 2116 4300 4424 4688 5214 5052 5092 4803 4641 4568 4648 4425 4344 3942 4073 4074 4053 3902 4167 4649 5174 5190 5278
223 231 239 154 61 1 46 23 0 0 0 0 0 3 0 0 4 1 0 0 0 0 0 0 0 0 0 0 0 0 0 19 0 62 24 40 31 21 824 1482 1157 2627 4679 4726 5333 5190 4815 4370 4345 4408 4316 4128 4404 3973 3998 4088 4427 4920 4364 4889 5310 5445 5354
342 411 276 187 38 106 50 14 2 0 0 0 0 0 1 15 3 10 11 0 0 0 0 0 0 0 0 0 0 47 0 0 0 0 0 7 58 1006 1242 1686 2368 3865 4484 4596 4833 5059 4425 4222 4350 4073 4250 4316 4066 3597 3846 4233 4328 4465 4623 4972 5162 5142 4674
336 294 386 145 72 56 24 34 45 0 14 8 0 3 1 3 20 17 18 18 2 0 0 0 0 0 0 0 0 0 0 0 0 0 0 4 486 437 1060 2398 3520 4380 4237 4414 4609 5095 4377 4096 4293 4098 4218 4052 4116 3770 4134 4336 4613 4573 4826 5122 5215 5207 4707
138 297 328 169 138 68 102 1444 458 294 363 208 227 238 127 24 18 11 8 5 27 10 0 0 0 1 7 0 0 0 0 0 0 0 84 88 62 0 646 2564 3110 4619 4544 4301 4596 4533 4206 3984 4059 4186 4028 4335 4345 4192 4671 4793 4864 4812 4973 5145 5180 5168 4742
255 272 252 254 98 196 1203 950 581 485 466 326 391 2 0 2 7 0 8 0 0 0 9 19 12 8 0 0 0 14 123 74 58 150 112 528 213 333 1139 2274 3374 4227 4110 3844 4449 4280 4137 3852 4031 4325 4252 4314 4324 4317 4427 4409 4395 4490 5062 5248 5126 5044 4571
124 305 185 112 64 229 1050 776 664 431 244 203 154 145 26 40 2 0 0 0 0 0 0 0 9 8 0 0 0 3 0 0 6 372 877 675 299 446 1116 1907 3325 3830 4078 4048 4214 3672 3670 4078 4278 4871 4230 3924 3824 4052 4354 4448 4392 4707 5084 5170 5110 4980 4488
14 42 220 204 287 784 618 664 605 402 309 318 368 136 602 1514 1636 1616 1786 1801 96 0 0 0 0 0 0 47 192 1508 1049 163 524 1062 1446 1352 936 830 1120 2036 3123 3591 3633 3783 3618 3588 3946 4570 4023 3701 3136 3568 4215 4457 4564 4500 4698 4765 4765 4933 4862 4792 4124
4 32 30 62 177 818 394 628 340 384 317 385 211 1604 1250 1863 1237 1426 1431 1726 1618 1076 44 0 0 0 2 17 50 1206 2246 2584 2587 2470 2290 2440 2343 2092 1846 3141 3585 3846 3346 3670 3326 3373 3663 3387 2867 3114 4007 4546 4466 4265 4137 4354 4456 4836 5082 4941 4688 4324 3877
0 38 35 38 34 1252 604 664 268 494 374 114 1281 1261 1098 1000 1204 1072 1586 1685 1522 1054 664 259 196 121 0 293 537 734 2548 3073 2989 2672 2478 2444 2390 3166 3735 3540 3365 3005 3210 2963 2599 2915 2896 2918 3188 4326 4645 4384 4063 3952 4087 4608 5034 5302 5140 4689 4292 4041 3784
0 0 0 8 48 910 594 587 467 1086 1142 1410 1519 1224 684 928 1016 1354 1357 1364 1763 1665 1311 1030 441 295 650 1052 1557 2484 2817 2842 2922 3106 2980 3154 3593 3529 3178 2966 2910 2953 3159 3602 3900 3821 3574 4389 4646 4548 4892 4930 4945 4944 4967 5093 5030 4931 4914 4700 4270 3953 3628
60 24 15 1368 844 496 222 540 938 802 934 878 830 805 859 1013 1224 1160 1236 1500 1444 1229 2063 2177 2066 2347 2460 2859 2737 2962 2898 3042 3233 3490 3486 3383 3123 2750 2757 2937 3497 4039 4193 4003 3819 3997 3932 4258 4328 4480 4705 4923 4870 4815 4649 4618 4669 4705 4606 4449 4042 3584 3316
923 814 959 511 612 456 184 128 258 492 659 870 1048 998 1046 1130 1410 1107 1135 1121 936 1546 1805 1924 2045 1934 2069 2285 2324 2478 2605 2733 2811 2898 2972 2989 2950 3080 3116 3168 3089 3117 3078 3585 3767 3995 4407 4613 4822 4928 5138 5133 4750 4456 4235 4040 3994 3931 3623 3482 3466 3303 2841
704 642 590 865 771 468 379 345 328 547 596 891 1144 1166 1019 1078 1116 1242 868 1256 1067 1066 1358 1474 1632 1802 1874 1898 1957 2236 2490 2493 2520 2278 2394 2594 2420 2422 2312 2526 2701 2606 2258 2025 2213 2400 2677 2786 2901 3263 3595 3682 3608 3550 3856 3953 3839 3819 3624 3469 3149 2718 2337
400 597 856 525 932 920 639 642 531 460 402 594 726 780 950 959 634 799 847 913 903 885 934 868 1018 1113 1087 1206 1594 1760 2089 2432 2785 2999 3224 2926 1740 1864 1907 1781 1780 1753 1817 1825 1792 1944 2278 2295 2493 2867 3080 3110 3187 3166 3465 3810 3917 3756 3359 2926 2626 2418 2066
464 553 633 567 756 774 673 685 761 676 476 333 191 209 301 578 455 535 600 691 831 1216 1097 1551 1580 1520 1379 1330 1647 1790 1884 1421 1640 1917 2359 2642 2944 3246 3447 3432 3174 2971 2949 2939 3000 2892 2772 2489 2331 2570 2624 2460 2641 3049 3201 3533 3547 3194 2706 2304 2234 1895 1656
485 257 363 612 452 466 450 482 454 476 408 254 179 114 125 116 376 570 581 590 608 825 876 830 768 726 764 1172 1535 1733 2046 2412 2001 1438 1197 1220 1446 1733 2031 2340 2521 2571 2831 3103 3052 2896 2778 2663 2348 2118 2160 2338 2463 2712 3309 3236 3049 2798 2534 2324 2054 1726 1555
234 418 1050 966 801 663 393 376 222 85 144 146 65 12 14 294 364 363 404 401 415 469 482 451 407 402 474 552 554 604 954 1248 1656 1873 1708 1541 1552 1768 1913 1846 1901 1966 1926 2137 2343 2174 2013 1881 1712 1672 1694 1584 2028 2576 2982 3111 2884 2767 2569 2197 1819 1689 1483
306 179 575 530 196 185 252 140 44 1 56 0 0 66 114 145 182 136 191 336 362 432 438 422 439 470 478 456 460 520 498 464 398 757 1038 1294 1658 1902 2155 2510 2772 2816 2641 2200 1911 1804 1769 1672 1549 1576 1553 1880 2351 2650 3019 2978 2866 2750 2514 2158 1870 1589 1443
221 127 488 427 203 48 0 0 0 1 2 0 17 54 82 132 174 201 242 292 336 322 401 461 426 410 502 518 440 397 429 392 357 311 264 519 536 858 1244 1774 2197 2457 2477 2400 2234 2164 2166 1964 1955 1957 2068 2225 2407 2432 2722 2662 2640 2624 2474 2069 1622 1441 1350

ECMWFFLT2_con_mucape_021.txt.gz
CAPE
0 0 0 0 0 0 0 0 0 0 0 0 0 0 0 0 0 0 0 0 0 0 0 0 0 0 0 0 0 0 0 0 0 26 137 188 74 44 62 158 248 756 992 740 749 1115 1195 1490 1736 1711 1657 1575 1739 2065 2403 2546 2627 2762 2781 2804 2835 2806 2874
0 0 0 0 0 0 0 0 0 0 0 0 0 0 0 0 0 0 0 0 0 0 0 0 0 0 0 0 0 0 0 1 16 85 162 169 133 309 317 235 238 285 1049 1098 937 1153 1366 1445 1679 1717 1677 1572 1783 2086 2416 2557 2641 2826 2858 2864 2874 2874 2886
0 0 0 0 0 0 0 0 0 0 0 0 0 0 0 0 0 0 0 0 0 0 0 0 0 0 0 0 0 0 0 0 77 97 159 216 308 561 613 498 420 420 544 1136 1148 1118 1402 1565 1624 1688 1664 1638 1878 2189 2490 2562 2684 2832 2926 2896 2899 2963 2943
0 0 0 0 0 0 0 0 0 0 0 0 0 0 0 0 0 0 0 0 0 0 0 0 0 0 0 0 0 0 0 0 5 84 208 312 508 674 790 789 768 715 684 806 1151 1185 1234 1568 1704 1704 1735 1760 1956 2270 2578 2668 2698 2865 2983 2982 2993 3030 3055
0 0 0 0 0 0 0 0 0 0 0 0 0 0 0 0 0 0 0 0 0 0 0 0 0 0 0 0 0 0 0 0 0 16 156 438 638 767 842 907 900 753 818 803 948 1188 1306 1636 1799 1763 1798 1831 1969 2290 2568 2716 2768 2891 3044 3075 3076 3094 3165
0 0 0 0 0 0 0 0 0 0 0 0 0 0 0 0 0 0 0 0 0 0 0 0 0 0 0 0 0 0 0 0 0 3 86 288 590 636 619 616 254 361 867 1021 956 1016 1224 1740 1973 1879 1843 1847 1880 2206 2488 2746 2824 2901 3022 3121 3115 3134 3227
0 0 0 0 0 0 0 0 0 0 0 0 0 0 0 0 0 0 0 0 0 0 0 0 0 73 0 0 1 0 0 0 0 4 96 224 368 482 502 361 257 581 869 1101 1154 1151 1270 1633 1994 1965 1892 1854 1877 2085 2353 2674 2865 2935 3024 3107 3124 3144 3204
0 0 0 0 0 0 0 0 0 0 0 0 0 0 0 0 0 0 0 0 0 0 0 13 67 233 18 0 0 0 0 0 0 0 206 196 202 411 509 440 200 774 1125 1067 1119 1293 1332 1461 1889 1974 1946 1922 1875 1985 2219 2482 2764 2965 3045 3113 3149 3168 3184
0 0 0 0 0 0 0 0 0 0 0 0 0 0 0 0 0 0 0 0 0 0 0 282 42 267 6 5 0 0 0 0 0 0 86 222 153 185 199 169 184 708 1204 1242 1143 1431 1652 1672 1864 1939 1962 1931 1877 1771 2029 2276 2501 2821 2964 3072 3203 3259 3228
0 0 0 0 0 0 0 0 0 0 0 0 0 0 0 0 0 0 0 0 0 0 0 0 173 5 12 44 0 1 0 0 0 0 182 218 176 193 286 231 413 702 1102 1311 1300 1416 1824 1932 2018 2023 1966 1872 1873 1860 1836 2027 2228 2462 2715 2891 3184 3345 3334
0 0 0 0 0 0 0 0 0 0 0 0 0 0 0 0 0 0 0 0 0 0 0 0 7 8 0 0 76 9 35 128 217 561 613 232 358 555 555 532 615 722 902 1018 1417 1588 1905 2104 2142 2136 2076 2055 2044 2035 2006 1902 1957 2175 2447 2722 3116 3395 3410
0 0 0 0 0 0 0 0 0 0 0 0 0 0 0 0 0 0 0 0 0 0 0 0 5 0 5 117 18 23 30 745 545 566 597 895 690 678 652 571 601 776 1041 1212 1538 1711 1895 2126 2231 2356 2209 2200 2173 2156 2118 2003 1820 2301 2653 2846 3014 3291 3432
0 0 0 0 0 0 0 0 0 0 0 0 0 0 0 0 0 0 0 20 7 0 0 0 2 5 3 202 126 20 23 1177 1261 926 704 859 778 701 606 573 532 1076 1298 1432 1520 1690 1911 2085 2200 2416 2367 2289 2241 2200 2136 2098 1959 2306 2660 2987 3106 3214 3334
0 0 0 0 0 0 0 0 0 0 0 0 0 0 0 0 0 0 0 0 0 22 0 0 8 87 80 202 268 21 92 1436 1452 1616 1304 921 916 743 698 977 1106 1246 1416 1595 1694 1754 1754 1711 1887 2176 2442 2366 2295 2245 2223 2172 2051 2053 2355 2806 3049 3128 3299
0 0 0 0 0 0 0 0 0 0 0 0 0 0 0 0 0 0 0 0 0 0 0 0 0 123 278 56 277 225 11 1154 1439 1737 1650 1582 1560 1886 1886 1795 1627 1350 1254 1494 1826 2142 2338 2332 2032 2165 2463 2426 2323 2263 2225 2166 2095 1957 2019 2487 2811 2945 3060
0 0 0 0 0 0 0 0 0 0 0 0 0 0 0 0 0 0 0 0 0 0 0 0 0 54 157 38 390 19 113 824 1198 1496 1569 2121 2052 2192 2708 2480 2452 2180 2049 2117 2073 2497 2859 2903 2652 2300 2444 2568 2424 2305 2246 2184 2089 1977 1836 2156 2513 2679 2745
0 0 2 0 0 0 0 0 0 0 0 0 0 0 0 0 0 0 0 0 0 0 0 0 0 0 6 36 12 22 311 141 236 18 903 1988 2386 2313 2436 2467 2377 2351 2640 3560 3563 2969 3105 3241 3043 2706 2524 2573 2546 2396 2254 2189 2100 1994 1860 1803 2158 2340 2382
1 2 0 0 4 1 0 0 0 0 0 0 0 0 0 0 0 0 0 0 0 111 97 0 0 0 0 0 0 2 13 268 399 163 0 0 194 2049 2133 2231 2515 2528 2517 3265 4417 4117 3587 3509 3385 2924 2610 2578 2615 2519 2341 2217 2148 2037 1838 1648 1807 2010 2111
0 1 4 10 31 0 0 0 0 0 0 0 0 0 0 0 0 0 0 0 0 0 0 0 0 0 16 78 45 325 126 9 230 89 290 397 521 370 2024 2391 2634 2642 2458 2484 3728 4385 4172 3953 3684 3271 2839 2646 2553 2486 2387 2297 2158 2015 1828 1693 1426 1731 1938
0 2 8 11 0 0 1 2 0 8 18 0 0 0 0 0 0 14 59 381 11 320 108 6 0 13 220 6 193 353 293 148 800 674 365 402 489 460 1699 2920 2935 2802 2718 2734 3272 3883 4058 4003 3858 3592 3191 2857 2688 2553 2400 2299 2181 2057 1897 1731 1496 1547 1685
1 0 5 6 0 0 1 0 0 0 0 18 9 0 31 294 546 258 151 34 116 395 564 584 224 27 0 0 0 0 2 0 2 22 37 44 20 14 223 1440 2845 3098 3044 2873 3002 3374 3671 3712 3731 3679 3541 3190 3050 2743 2464 2318 2214 2128 1984 1790 1596 1574 1571
0 1 3 28 7 3 0 0 0 0 64 57 54 74 52 938 855 736 532 468 612 1060 1064 826 352 13 0 0 0 0 0 0 0 0 0 0 0 0 0 522 2465 2999 3100 2944 2918 3266 3455 3540 3565 3587 3554 3478 3416 3199 2760 2408 2299 2187 2059 1823 1990 1803 1802
24 0 3 10 2 0 1 107 0 203 247 71 162 12 48 1473 976 962 1269 1536 1688 1868 1709 986 368 23 10 19 0 258 156 0 0 0 0 0 0 374 335 141 2904 3386 3256 3153 3298 3690 3666 3534 3543 3544 3578 3597 3510 3435 3266 2970 2880 2564 2102 1815 2466 2230 2291
132 53 0 0 0 7 512 130 42 402 199 0 21 53 176 1240 911 986 1181 1337 1551 1709 1866 1428 1158 1206 1158 1327 1876 1772 697 94 407 59 0 905 1028 1160 1500 1448 1834 3842 3916 3829 4056 4142 3883 3602 3574 3613 3635 3619 3505 3484 3454 3270 3108 3109 2942 3022 3155 2844 3497
120 62 140 21 37 1015 602 598 448 505 183 137 47 0 934 1519 852 1094 1291 1245 1237 1326 1481 1622 1707 1592 2165 2302 2366 2582 2422 1766 1519 1858 1188 944 1051 833 1233 1624 2016 3440 4339 4188 4263 4360 4146 3848 3658 3664 3616 3603 3486 3452 3467 3399 3240 3217 3666 4029 4061 4436 4846
82 84 18 89 65 410 530 864 493 388 239 17 39 1322 972 1211 1084 1168 1123 1034 956 1277 1524 1780 2008 2128 1979 1959 1902 2108 2378 2586 2647 2773 2808 2408 1655 1410 2488 3317 2862 2037 3831 4301 4365 4461 4306 4043 3815 3699 3497 3432 3446 3514 3570 3458 3392 3357 4322 4577 4834 4982 4946
37 648 51 14 0 24 86 520 169 525 261 518 1033 1140 928 1060 1057 1107 1124 1188 1236 1463 1695 1761 1803 1722 1816 1845 1883 1899 1971 2193 2393 2569 2737 2830 2764 2803 2336 2916 3036 3817 2777 3650 4130 4508 4448 4222 3918 3725 3459 3460 3539 3664 3667 3576 3465 4097 4780 4956 5013 4928 4835
49 28 10 22 126 888 514 230 50 417 945 1160 1197 873 856 659 737 1005 1180 1374 1517 1630 1610 1577 1693 1546 1693 1823 1919 1928 2026 2251 2099 2030 2455 2902 2913 2617 2540 3220 3432 3687 4281 3761 3874 4274 4554 4469 4183 3886 3712 3586 3661 3768 3802 3659 4120 4913 4942 5038 4962 4812 4747
460 360 598 631 248 476 742 938 567 620 791 904 777 639 642 835 999 1169 1467 1666 1687 1742 1678 1451 1211 1208 1605 1804 1872 1830 1974 2141 2248 2243 2358 2624 2797 2798 2400 2830 3232 3148 3211 3891 3701 3475 3928 4513 4316 4051 3952 3824 3794 3791 3840 4311 4758 4854 4880 4953 4841 4751 4639
852 583 482 485 151 261 440 620 575 671 877 848 773 670 553 616 772 947 1168 1499 1632 1539 1438 1129 996 1041 1215 1497 1764 1768 1892 2215 2368 2377 2308 2449 2773 2432 2236 2359 3013 3090 3237 3240 3162 2845 3014 3654 3517 3961 3930 3914 3810 3793 4475 4598 4706 4726 4771 4838 4790 4703 4589
142 58 324 570 381 94 104 293 635 753 704 577 563 555 627 674 692 704 840 957 997 1084 865 944 953 1029 1062 1457 1607 1710 1686 1718 2003 2409 2336 2288 2196 2137 2136 1975 2214 2810 3040 3251 3104 2974 2457 2646 3311 3781 4147 3885 3965 4550 4628 4586 4563 4592 4589 4657 4685 4654 4557
358 451 601 656 570 262 22 18 552 662 484 497 480 521 496 483 264 468 616 570 579 522 512 691 766 758 820 924 1263 1363 1370 1599 1718 1662 1724 1864 1929 1958 1939 1976 1911 1814 2232 2476 2711 2748 2822 2879 3068 3680 3812 3761 4429 4526 4548 4430 4373 4379 4402 4446 4472 4455 4379
291 446 730 91 223 109 13 58 461 407 392 414 474 503 478 399 397 496 540 481 445 334 386 448 514 619 672 661 734 936 997 1136 1174 1213 1710 1794 1627 1643 1732 1825 1869 1928 2256 2974 3279 3269 3308 3383 3258 2802 3285 3691 4039 4060 4085 4064 3985 3971 3983 3913 4146 3901 3380
131 561 290 409 202 63 174 1 131 11 35 407 514 516 432 470 337 338 325 0 406 473 536 507 494 433 586 653 726 738 755 817 994 1155 1204 1465 1726 1636 1746 1802 1924 2050 1975 3175 3544 3076 2977 2938 3094 2748 2814 2894 3181 3332 3614 3556 3499 3373 3322 3393 3366 2932 3104
191 241 314 539 485 452 15 147 39 308 92 204 497 479 492 295 23 278 316 358 403 493 552 592 580 553 534 547 524 548 516 608 794 994 1136 1140 1102 1201 1441 1679 1796 1863 1994 2150 2948 2898 2503 2344 2734 2607 2242 1588 2085 2488 2535 2739 2603 2928 2734 2684 2814 3209 2914
151 204 434 457 169 87 73 209 329 373 366 70 363 372 386 138 303 346 339 388 413 446 490 563 610 620 632 545 471 435 499 537 572 666 1020 1108 1061 1090 1266 1385 1329 1188 1292 1494 1864 2140 2458 2137 1671 1694 1900 2176 1878 2113 2093 1885 1857 1707 1788 1864 2652 2654 2404
140 412 415 347 516 154 108 42 39 30 71 85 6 279 253 272 301 347 416 372 351 374 452 528 588 636 710 670 552 448 464 528 536 531 742 1003 1198 997 1096 1420 1484 1316 1167 1153 1247 1408 1774 1575 1505 1687 1548 1608 1966 2258 1482 1144 1934 2046 2270 2753 2377 1904 1954

ECMWFFLT2_con_mucape_024.txt.gz
CAPE
0 0 0 0 0 0 0 0 0 0 0 0 0 0 0 0 0 0 0 0 0 0 0 0 0 0 0 0 0 0 1 9 23 25 5 0 0 0 0 1 0 0 0 69 268 302 602 984 1132 1163 1175 1204 1300 1550 1791 1904 1912 1955 2034 2155 2136 1949 1817
0 0 0 0 0 0 0 0 0 0 0 0 0 0 0 0 0 0 0 0 0 0 0 0 0 0 0 0 0 5 0 0 2 36 46 21 3 4 13 12 4 0 0 22 220 298 537 946 1119 1199 1217 1231 1273 1534 1807 1954 1979 2017 2035 2122 2208 2151 1979
0 0 0 0 0 0 0 0 0 0 0 0 0 0 0 0 0 0 0 0 0 0 0 0 0 0 0 0 0 0 3 0 4 9 35 68 39 9 13 25 18 12 11 16 127 296 454 894 1132 1213 1233 1256 1290 1510 1810 2006 2072 2079 2089 2117 2174 2230 2170
0 0 0 0 0 0 0 0 0 0 0 0 0 0 0 0 0 0 0 0 0 0 0 0 0 0 0 0 0 0 0 0 0 2 14 47 110 47 27 29 48 62 53 36 76 274 413 746 1116 1222 1264 1281 1330 1518 1830 2053 2147 2147 2149 2159 2182 2226 2254
0 0 0 0 0 0 0 0 0 0 0 0 0 0 0 0 0 0 0 0 0 0 0 0 0 0 0 0 0 0 0 0 0 0 1 22 90 90 55 46 61 88 141 130 109 252 416 633 1081 1275 1307 1329 1376 1514 1772 2029 2183 2221 2230 2224 2232 2242 2284
0 0 0 0 0 0 0 0 0 0 0 0 0 0 0 0 0 0 0 0 0 0 0 0 0 0 0 0 0 0 0 0 0 0 0 2 67 106 80 52 76 107 167 369 417 246 438 599 1043 1291 1352 1395 1438 1502 1720 1984 2148 2254 2294 2281 2276 2272 2293
0 0 0 0 0 0 0 0 0 0 0 0 0 0 0 0 0 0 0 0 0 0 0 0 0 0 0 0 0 0 0 0 0 3 2 0 24 96 107 95 80 224 146 430 435 379 540 789 1062 1311 1398 1446 1475 1537 1720 1949 2104 2232 2303 2328 2315 2323 2328
0 0 0 0 0 0 0 0 0 0 0 0 0 0 0 0 0 0 0 0 0 0 0 0 0 0 0 0 0 0 0 0 0 13 18 5 1 50 130 137 110 376 449 331 674 610 690 899 1087 1297 1418 1448 1497 1560 1695 1926 2075 2189 2299 2350 2353 2361 2368
0 0 0 0 0 0 0 0 0 0 0 0 0 0 0 0 0 0 0 0 0 0 0 0 0 0 0 0 0 0 0 0 0 13 44 37 9 31 112 162 254 439 227 142 697 853 808 1014 1180 1298 1417 1468 1505 1578 1696 1926 2056 2163 2284 2365 2388 2398 2416
0 0 0 0 0 0 0 0 0 0 0 0 0 0 0 0 0 0 0 0 0 0 0 0 0 0 0 0 0 2 20 0 0 2 49 74 56 58 114 166 146 96 142 305 433 835 953 1070 1291 1348 1408 1499 1542 1599 1737 1958 2067 2156 2293 2406 2447 2445 2470
0 0 0 0 0 0 0 0 0 0 0 0 0 0 0 0 0 0 0 0 0 0 0 0 0 0 0 0 0 0 0 12 34 1 35 273 272 91 108 190 219 307 186 380 572 649 912 1090 1334 1432 1458 1519 1557 1611 1730 1947 2126 2232 2334 2461 2527 2529 2532
0 0 0 0 0 0 0 0 0 0 0 0 0 0 0 0 0 0 0 0 0 0 0 0 0 0 0 0 0 0 0 3 36 0 11 313 332 334 84 140 59 517 520 580 738 797 821 997 1275 1467 1522 1575 1599 1634 1730 1907 2117 2284 2391 2503 2575 2602 2612
0 0 0 0 0 0 0 0 0 0 0 0 0 0 0 0 0 0 0 0 0 0 0 0 0 0 0 0 0 0 0 0 0 63 20 80 286 360 401 55 558 563 601 610 729 867 892 924 1145 1476 1594 1603 1622 1647 1687 1848 2053 2276 2419 2505 2586 2622 2653
0 0 0 0 0 0 0 0 0 0 0 0 0 0 0 0 0 0 0 0 0 0 0 0 0 0 0 0 0 0 2 126 67 152 44 107 156 311 402 468 522 575 621 771 771 884 1052 1050 1133 1424 1611 1681 1688 1676 1691 1799 1979 2211 2380 2490 2568 2630 2664
0 0 0 0 0 0 0 0 0 0 0 0 0 0 0 0 0 0 0 0 0 0 0 0 0 0 0 29 25 0 0 64 102 123 118 142 248 290 324 317 375 452 604 863 891 946 1156 1257 1293 1455 1603 1718 1760 1766 1749 1789 1920 2080 2280 2434 2536 2616 2668
0 0 0 0 0 0 0 0 0 0 0 0 0 0 0 0 0 0 0 0 0 0 0 0 0 0 0 0 0 35 276 700 795 248 198 233 258 300 315 325 369 418 543 801 926 1041 1226 1462 1507 1540 1627 1699 1768 1824 1816 1809 1853 1947 2123 2317 2459 2573 2650
0 0 0 0 0 0 0 0 0 0 0 0 0 0 0 0 0 0 0 0 0 0 0 0 0 0 0 0 0 0 358 875 1045 636 462 360 287 366 359 388 417 470 551 716 911 1120 1241 1480 1633 1715 1764 1741 1760 1803 1831 1836 1796 1841 1992 2148 2306 2448 2559
0 0 0 0 0 0 0 0 0 0 0 0 0 0 0 0 0 0 0 0 0 0 0 0 0 0 0 0 0 0 257 1051 1208 898 786 660 649 536 517 515 488 534 713 829 955 1097 1240 1338 1553 1811 1922 1900 1886 1874 1880 1870 1839 1849 1876 2043 2178 2316 2438
0 0 0 0 0 0 0 0 0 0 0 0 0 0 0 0 0 0 0 0 0 0 0 0 0 0 0 0 0 0 134 920 1272 1161 1029 909 920 794 706 652 678 655 786 894 984 1100 1215 1284 1392 1621 1918 2061 2063 2019 1984 1947 1929 1936 1949 1964 2159 2307 2401
0 0 0 0 0 0 0 0 0 0 0 0 0 70 129 10 0 0 3 0 0 0 0 0 0 0 0 0 302 548 209 0 833 740 801 1019 1001 1029 915 899 924 876 798 784 849 1025 1230 1454 1493 1492 1716 2018 2152 2116 2060 2037 2027 2037 2047 2020 2034 2283 2440
0 0 0 1 0 0 0 0 0 0 0 0 0 176 312 636 370 18 0 31 127 101 184 20 0 0 0 0 476 1340 1742 1644 0 42 482 730 1049 1102 1064 978 948 910 874 824 897 1089 1324 1629 1768 1698 1721 1928 2154 2211 2163 2112 2093 2084 2069 2034 2015 2150 2370
0 0 8 9 2 0 0 0 2 0 0 0 102 480 534 810 831 483 858 886 671 330 81 0 0 0 0 0 1269 1560 1964 2088 1636 1646 941 404 1114 1328 1304 1424 1525 1620 1606 1310 1258 1635 1992 2031 2148 2112 1927 1848 2009 2152 2207 2186 2140 2095 2006 1979 1985 2028 2186
2 1 0 7 6 0 0 3 56 51 0 301 401 548 609 838 1086 1133 1309 1168 756 302 294 299 12 0 32 755 1471 1893 1969 2045 2203 2189 1853 791 0 182 498 1300 1705 1712 1903 1986 1886 2137 2702 2741 2523 2491 2419 2162 1978 1964 2031 2027 1988 1960 1912 1937 1995 2052 2088
10 6 3 2 18 425 272 120 97 130 48 48 22 240 691 946 995 1110 1227 1214 1193 1133 1282 1366 1236 172 346 1038 1755 2028 1978 2093 2059 1932 1871 1987 2142 2170 2325 1646 961 1431 1792 2066 2115 2164 2570 2983 3101 2991 2799 2543 2295 2161 2133 2127 2064 2016 2018 2064 2080 2119 2134
5 18 18 265 396 452 317 135 82 89 76 0 5 0 822 875 873 888 1081 1162 1301 1435 1419 1352 1351 1782 1869 1865 1925 1915 1928 1881 2054 2093 1988 2052 2006 2097 2626 2722 2219 1877 2123 2270 2280 2302 2394 2771 3159 3301 3232 2997 2680 2412 2299 2236 2174 2127 2151 2178 2191 2188 2162
12 117 24 56 331 378 311 212 180 186 13 0 140 936 878 940 778 923 1040 1321 1622 1668 1681 1658 1611 1648 1827 1700 1824 1924 1905 1952 1999 2142 2223 2015 1870 1907 2401 2619 2760 2866 2817 2770 2678 2506 2422 2478 2726 2990 3167 3124 2949 2752 2537 2371 2290 2302 2317 2297 2280 2248 2163
49 18 96 75 178 224 310 386 402 599 453 844 905 1045 990 822 922 1082 1082 1214 1475 1470 1544 1656 1685 1688 1640 1631 1695 1863 2051 1986 1930 2093 2232 2181 2008 1957 1901 2131 2898 3278 3087 3315 3476 3268 3319 3335 3018 2858 2943 3094 3080 3012 2842 2660 2566 2492 2425 2420 2349 2279 2224
86 46 59 70 254 66 290 500 512 867 841 999 1116 968 1006 1054 1216 1260 1270 1269 1332 1437 1469 1432 1470 1510 1509 1383 1558 1580 1751 1909 2049 2055 1972 2124 2150 1951 2017 2280 2488 2723 3401 3581 3272 3286 3487 3564 3463 3254 3207 3022 3088 3246 3187 3012 2857 2610 2470 2453 2377 2284 2212
473 64 70 144 155 107 383 580 806 829 771 960 978 1094 1233 1370 1267 1189 1042 982 1055 1115 1175 1243 1268 1318 1510 1526 1573 1524 1652 1874 1948 1887 1861 2016 2110 1984 1802 1950 2255 2481 2546 2846 3455 3472 3338 3604 3685 3649 3403 3170 3110 3117 3043 3062 3062 3294 3080 2767 2424 2300 2371
592 690 43 176 277 76 306 473 926 904 738 736 754 860 932 1109 968 908 889 868 843 840 917 1082 1221 1311 1490 1516 1538 1531 1541 1627 1912 2089 2098 2044 1960 2125 1983 1838 1921 2104 2365 2560 2752 3039 3316 3449 3774 3857 3786 3595 3370 3234 3167 3106 3290 4007 4096 3880 3369 3101 3192
187 26 552 540 270 64 69 557 746 875 758 667 594 735 873 689 711 630 578 619 660 730 776 861 980 1139 1148 1199 1310 1398 1449 1445 1485 1732 1988 1958 1791 1733 1741 1678 1677 2013 2211 2202 2355 2568 2826 3129 3658 4000 4098 4028 3830 3588 3391 3265 3275 3926 4264 4236 3841 3641 3586
179 378 745 446 192 90 63 501 558 629 709 725 665 642 710 682 510 442 332 314 234 398 498 586 738 882 953 1006 1035 1056 1144 1164 1196 1282 1324 1529 1715 1680 1563 1559 1565 1876 2202 2314 2306 2224 2392 2664 2966 3344 3898 4036 3868 3572 3431 3409 3360 3334 3528 3744 3817 3756 3618
467 524 789 602 55 56 94 495 494 547 603 612 632 612 534 474 478 59 130 45 32 18 321 435 535 584 674 782 785 879 920 947 1017 1116 1201 1362 1429 1391 1440 1468 1533 1574 2037 2301 2290 2308 2267 2351 2461 2770 2904 3013 2936 2729 2772 2955 2947 3051 3351 3533 3718 3651 3564
206 389 397 149 305 52 116 174 522 541 613 524 547 416 362 308 344 361 126 50 31 19 198 405 369 336 490 533 638 658 781 934 1022 1078 1270 1358 1368 1346 1389 1446 1626 1729 1874 2203 2570 2624 2527 2381 2286 2213 2260 2314 2379 2683 2994 3080 3056 3142 3473 3585 3602 3441 3213
16 264 90 307 428 499 116 153 182 268 472 376 414 414 300 145 0 0 1 24 309 127 147 23 435 426 432 554 530 624 655 786 883 1050 1244 1290 1282 1262 1272 1340 1398 1614 1765 2039 2397 2746 2778 2780 2713 2456 2324 2297 2209 2311 2722 3308 3507 3452 3529 3620 3383 3138 2903
345 345 479 604 522 564 16 35 81 144 192 172 387 125 12 286 287 248 258 339 346 391 378 323 451 494 466 478 523 548 613 720 919 1038 1291 1382 1394 1338 1295 1280 1273 1400 1660 1861 2071 2202 2143 2306 2514 2653 2677 2587 2451 2448 2465 3121 3648 3764 3417 3458 2895 3071 2489
130 262 120 344 450 345 248 240 56 7 66 293 148 2 27 7 0 0 234 302 346 408 516 473 533 502 565 547 622 645 676 694 802 1040 1134 1322 1354 1320 1247 1165 1182 1265 1375 1535 1718 1793 1895 1846 1859 1953 1946 1937 1830 1993 2403 2598 2833 3038 2776 2892 2388 1969 1564

ECMWFFLT2_con_mucape_027.txt.gz
CAPE
0 0 0 0 0 0 0 0 0 0 0 0 0 0 0 0 0 0 0 0 0 0 0 0 0 0 0 0 0 0 0 0 0 0 0 0 0 0 0 0 6 29 65 138 176 178 257 424 532 620 646 712 838 965 1012 1007 1002 1055 1142 1378 1483 1477 1444
0 0 0 0 0 0 0 0 0 0 0 0 0 0 0 0 0 0 0 0 0 0 0 0 0 0 0 0 0 0 0 0 0 0 0 0 0 0 0 0 0 0 14 95 159 175 192 331 562 648 675 716 834 972 1095 1088 1057 1086 1180 1279 1455 1530 1518
0 0 0 0 0 0 0 0 0 0 0 0 0 0 0 0 0 0 0 0 0 0 0 0 0 0 0 0 0 0 0 0 0 0 0 0 0 0 0 0 0 0 0 26 112 173 168 221 466 648 704 734 814 947 1102 1162 1150 1146 1251 1305 1369 1503 1561
0 0 0 0 0 0 0 0 0 0 0 0 0 0 0 0 0 0 0 0 0 0 0 0 0 0 0 0 0 0 0 0 0 0 0 0 0 0 0 0 0 0 0 1 38 126 158 176 331 574 714 778 836 922 1090 1230 1255 1238 1297 1398 1454 1439 1522
0 0 0 0 0 0 0 0 0 0 0 0 0 0 0 0 0 0 0 0 0 0 0 0 0 0 0 0 0 0 0 0 0 0 0 0 0 0 0 0 0 0 0 0 7 53 130 149 277 536 723 822 876 937 1039 1231 1340 1349 1369 1474 1544 1520 1482
0 0 0 0 0 0 0 0 0 0 0 0 0 0 0 0 0 0 0 0 0 0 0 0 0 0 0 0 0 0 0 0 0 0 0 0 0 0 0 0 0 0 0 0 0 3 51 103 192 480 717 819 893 958 1046 1211 1368 1434 1450 1520 1629 1672 1611
0 0 0 0 0 0 0 0 0 0 0 0 0 0 0 0 0 0 0 0 0 0 0 0 0 0 0 0 0 0 0 0 0 0 0 0 0 0 0 0 0 0 0 0 0 0 2 66 196 430 710 831 901 969 1047 1203 1376 1483 1528 1591 1670 1754 1767
0 0 0 0 0 0 0 0 0 0 0 0 0 0 0 0 0 0 0 0 0 0 0 0 0 0 0 0 0 0 0 0 0 0 0 0 0 0 0 0 0 0 0 0 0 0 0 34 148 386 686 836 918 981 1062 1192 1382 1512 1588 1657 1716 1784 1846
0 0 0 0 0 0 0 0 0 0 0 0 0 0 0 0 0 0 0 0 0 0 0 0 0 0 0 0 0 0 0 0 0 0 0 0 0 0 2 0 0 0 0 0 0 0 0 21 124 365 671 842 946 1012 1076 1191 1380 1534 1646 1719 1761 1798 1860
0 0 0 0 0 0 0 0 0 0 0 0 0 0 0 0 0 0 0 0 0 0 0 0 0 0 0 0 0 0 0 0 0 0 0 0 0 0 2 2 0 0 0 0 0 0 0 16 128 345 639 860 968 1038 1108 1212 1370 1560 1707 1790 1825 1842 1874
0 0 0 0 0 0 0 0 0 0 0 0 0 0 0 0 0 0 0 0 0 0 0 0 0 0 0 0 0 0 0 0 0 0 0 0 0 0 0 0 8 12 1 0 1 8 11 30 135 364 661 890 1009 1067 1144 1238 1378 1574 1760 1875 1903 1903 1922
0 0 0 0 0 0 0 0 0 0 0 0 0 0 0 0 0 0 0 0 0 0 0 0 0 0 0 0 0 0 0 0 0 0 0 0 0 0 0 1 2 12 225 88 92 62 90 87 190 396 692 906 1028 1110 1180 1268 1411 1612 1810 1932 1971 1990 2004
0 0 0 0 0 0 0 0 0 0 0 0 0 0 0 0 0 0 0 0 0 0 0 0 0 0 0 0 0 0 0 0 0 0 0 0 0 0 0 0 0 0 26 264 281 282 206 210 270 472 735 923 1050 1147 1212 1296 1449 1656 1831 1949 2041 2077 2080
0 0 0 0 0 0 0 0 0 0 0 0 0 0 0 0 0 0 0 0 0 0 0 0 0 0 0 0 0 0 0 0 0 0 0 0 0 0 0 0 0 0 12 255 307 329 348 384 449 608 792 965 1093 1188 1270 1342 1496 1678 1835 1958 2063 2129 2165
0 0 0 0 0 0 0 0 0 0 0 0 0 0 0 0 0 0 0 0 0 0 0 0 0 0 0 0 0 0 0 0 0 0 0 0 0 0 0 0 0 2 16 75 292 304 373 555 631 734 883 1033 1153 1229 1297 1394 1534 1708 1855 1978 2054 2160 2218
0 0 0 0 0 0 0 0 0 0 0 0 0 0 0 0 0 0 0 0 0 0 0 0 0 0 0 0 0 0 0 0 0 0 0 0 0 0 0 0 2 2 15 75 144 304 338 560 748 854 1006 1122 1211 1287 1344 1430 1569 1724 1888 1987 2072 2166 2233
0 0 0 0 0 0 0 0 0 0 0 0 0 0 0 0 0 0 0 0 0 0 0 0 0 0 0 0 0 0 0 0 0 0 0 0 0 0 0 0 12 10 36 108 221 420 442 458 740 949 1124 1229 1282 1341 1393 1462 1552 1737 1931 2028 2095 2174 2246
0 0 0 0 0 0 0 0 0 0 0 0 0 0 0 0 0 0 0 0 0 0 0 0 0 0 0 0 0 0 0 0 0 0 0 0 0 0 0 0 33 56 65 387 434 531 589 593 674 916 1158 1300 1370 1404 1440 1481 1558 1749 1970 2095 2149 2205 2278
0 0 0 0 0 0 0 0 0 0 0 0 0 0 0 0 0 0 0 0 0 0 0 0 0 0 0 161 774 1115 1388 493 0 1 66 29 0 0 0 0 10 45 410 498 532 620 700 753 784 835 1070 1302 1420 1472 1491 1519 1593 1758 1941 2102 2193 2254 2304
0 0 0 0 0 0 0 0 0 0 0 0 0 0 0 0 0 0 0 0 0 0 0 0 0 0 0 626 1112 1386 1451 1478 1356 2 0 0 104 62 0 3 44 66 430 496 577 656 746 860 966 954 1038 1235 1430 1525 1568 1600 1647 1735 1883 2041 2198 2280 2349
0 0 0 0 0 0 0 0 0 0 0 0 0 0 0 0 36 0 0 0 0 0 0 0 0 0 0 4 732 1310 1488 1425 1430 1355 1406 370 528 589 16 82 55 146 173 396 537 647 822 938 1081 1127 1161 1260 1413 1528 1605 1645 1679 1737 1810 1935 2095 2243 2356
0 0 0 0 0 0 0 0 0 0 0 0 0 0 0 0 0 0 0 0 0 0 0 0 0 0 0 7 369 980 1495 1538 1375 1496 1554 1460 1333 826 122 564 546 609 511 486 482 680 889 1001 1088 1212 1288 1379 1466 1549 1619 1680 1735 1763 1785 1860 1980 2132 2280
0 0 0 0 0 0 0 0 0 0 0 0 0 0 0 0 198 528 73 0 0 0 0 0 0 0 0 22 620 1560 1573 1518 1384 1459 1512 1668 1633 1511 1570 1386 1122 944 896 789 644 730 846 999 1138 1238 1357 1540 1649 1680 1695 1752 1794 1822 1818 1852 1932 2039 2164
3 0 0 0 0 5 0 0 0 0 0 0 0 0 0 35 838 633 761 85 1 12 0 0 0 0 5 426 1210 1568 1737 1655 1670 1401 1396 1485 1602 1713 1695 1706 1718 1742 1458 1138 1227 1039 910 935 1064 1240 1322 1463 1737 1832 1826 1815 1842 1847 1851 1879 1929 2010 2093
66 10 0 0 0 43 0 0 0 0 0 0 0 0 0 693 850 825 824 856 819 666 446 382 520 1303 720 1200 1616 1574 1558 1689 1709 1622 1594 1636 1633 1639 1735 1972 2074 2052 2220 1862 1305 1438 1210 1312 1344 1368 1488 1470 1580 1836 1959 1958 1937 1927 1933 1933 1963 2006 2018
7 27 8 0 0 0 0 1 4 6 4 0 11 763 686 934 840 1086 1076 950 956 971 1026 970 1276 1595 1740 1789 1639 1570 1570 1736 1686 1643 1528 1424 1623 1879 1986 2190 2337 2517 2582 2713 2471 1925 1808 2033 2245 2097 1809 1742 1676 1693 1881 2022 2055 2055 2052 2046 2054 2058 2050
10 16 32 12 27 69 92 105 60 92 194 620 556 760 1015 820 1116 1062 965 958 992 1152 1335 1422 1623 1733 1774 1819 1801 1722 1640 1491 1465 1518 1591 1608 1572 1415 1386 1765 2222 2602 2893 2838 3031 3076 3008 2811 2588 2588 2565 2180 1948 1826 1770 1892 2038 2114 2087 2120 2147 2136 2100
24 17 24 15 31 118 137 182 148 410 270 606 974 910 999 1124 1120 1061 1053 1056 1075 1208 1340 1528 1480 1429 1471 1524 1600 1687 1678 1664 1698 1583 1626 1738 1700 1632 1499 1652 1990 2290 2714 3082 3220 3269 3371 3373 3145 2871 2780 2834 2714 2480 2303 2124 2264 2247 2173 2253 2251 2224 2225
46 10 18 56 170 97 109 334 412 558 642 838 934 1019 890 1071 911 1080 1064 1101 1201 1078 1093 1104 1086 1127 1204 1208 1383 1361 1594 1544 1460 1468 1458 1426 1534 1619 1521 1517 1780 2003 2246 2612 3007 3309 3478 3537 3580 3481 3216 2946 2944 3012 2947 2896 2866 2742 2531 2276 2242 2306 2356
587 392 308 316 187 174 238 425 556 789 880 945 822 940 825 768 954 947 962 1015 915 827 695 731 912 1038 1174 1192 1204 1213 1239 1292 1413 1618 1704 1602 1595 1593 1614 1669 1682 1924 2024 2108 2643 2935 3201 3426 3646 3674 3634 3476 3235 3074 3081 3161 3122 3041 2971 2742 2491 2331 2250
232 29 344 173 172 140 196 517 578 669 984 779 759 775 671 624 832 838 838 794 696 652 639 712 802 890 920 940 963 982 1047 1098 1118 1133 1142 1186 1251 1273 1320 1402 1574 1840 2015 2006 2014 2099 2583 2988 3280 3522 3628 3696 3668 3553 3368 3185 3379 3220 3142 3099 2980 2787 2636
116 53 237 50 224 64 184 300 418 571 631 495 169 336 124 7 296 617 511 606 620 669 716 707 728 791 820 854 890 950 989 1020 1042 1070 1102 1119 1090 1074 1059 1310 1510 1753 1930 2085 2139 2104 2143 2206 2490 3018 3384 3593 3703 3716 3780 3743 3644 3560 3358 3240 3250 3196 3099
387 560 250 30 167 162 112 188 312 281 211 161 190 136 183 93 163 0 320 344 381 401 591 654 633 682 747 820 895 945 978 1010 1040 1067 1097 1135 1089 1009 1037 1181 1494 1722 1902 2045 2154 2356 2280 2189 2166 2226 2391 2810 3287 3586 3862 3848 3899 3897 3840 3690 3489 3298 3224
212 235 146 96 82 142 80 51 152 222 195 164 177 206 213 226 191 37 25 242 306 266 243 410 514 616 735 861 952 1008 1054 1045 1061 1114 1123 1077 981 988 1020 1096 1386 1660 1840 2000 2092 2238 2326 2424 2579 2548 2541 2410 2268 2299 2618 2874 3107 3341 3566 3610 3608 3530 3559
164 276 308 176 241 210 106 44 37 79 56 69 115 149 169 186 89 36 22 32 2 253 365 458 612 682 794 871 934 1001 1048 1097 1128 1184 1204 1182 1121 1081 1011 1070 1213 1398 1583 1852 2007 2122 2184 2171 2284 2359 2438 2438 2522 2532 2566 2514 2650 2771 2905 3122 3368 3515 3521
268 284 500 398 426 70 30 18 71 55 46 64 62 70 94 121 46 0 147 266 390 498 585 615 658 722 764 804 872 934 988 1058 1164 1233 1288 1306 1188 1107 1039 1058 1155 1370 1594 1769 1881 1946 1847 1917 2038 2134 2202 2182 2117 2167 2236 2346 2453 2526 2637 2744 2955 3154 3299
129 404 156 158 261 210 74 36 0 0 14 28 29 37 5 16 0 9 2 158 387 435 500 562 617 625 642 674 714 712 751 842 1008 1150 1260 1327 1250 1184 1198 1207 1232 1296 1432 1542 1609 1658 1734 1729 1824 1866 1888 1831 1765 1732 1753 1898 2114 2286 2397 2480 2512 2619 2786

ECMWFFLT2_con_mucape_030.txt.gz
CAPE
0 0 0 0 0 0 0 0 0 0 0 0 0 0 0 0 0 0 0 0 0 0 0 0 0 0 0 0 0 0 0 0 0 0 0 0 0 0 8 32 59 94 81 70 75 98 143 216 266 324 429 572 631 744 828 897 952 975 996 1013 1037 1112 1166
0 0 0 0 0 0 0 0 0 0 0 0 0 0 0 0 0 0 0 0 0 0 0 0 0 0 0 0 0 0 0 0 0 0 0 0 0 0 0 6 32 55 68 86 62 66 97 172 248 293 356 394 562 660 741 819 863 936 977 998 1012 1076 1147
0 0 0 0 0 0 0 0 0 0 0 0 0 0 0 0 0 0 0 0 0 0 0 0 0 0 0 0 0 0 0 0 0 0 0 0 0 0 0 0 0 5 34 58 60 61 66 106 240 278 312 337 425 570 679 752 817 875 940 961 996 1105 1125
0 0 0 0 0 0 0 0 0 0 0 0 0 0 0 0 0 0 0 0 0 0 0 0 0 0 0 0 0 0 0 0 0 0 0 0 0 0 0 0 0 0 3 27 42 54 55 69 136 216 264 299 361 500 671 716 768 819 874 931 1069 1125 1146
0 0 0 0 0 0 0 0 0 0 0 0 0 0 0 0 0 0 0 0 0 0 0 0 0 0 0 0 0 0 0 0 0 0 0 0 0 0 0 0 0 0 0 1 17 32 48 46 82 189 231 299 354 447 580 716 762 789 841 893 947 1131 1168
0 0 0 0 0 0 0 0 0 0 0 0 0 0 0 0 0 0 0 0 0 0 0 0 0 0 0 0 0 0 0 0 0 0 0 0 0 0 0 0 0 0 0 0 0 5 16 19 30 113 213 288 333 441 532 680 781 813 827 869 911 1016 1224
0 0 0 0 0 0 0 0 0 0 0 0 0 0 0 0 0 0 0 0 0 0 0 0 0 0 0 0 0 0 0 0 0 0 0 0 0 0 0 0 0 0 0 0 0 0 0 13 36 56 186 298 370 431 518 642 778 859 871 898 935 1038 1184
0 0 0 0 0 0 0 0 0 0 0 0 0 0 0 0 0 0 0 0 0 0 0 0 0 0 0 0 0 0 0 0 0 0 0 0 0 0 0 0 0 0 0 0 0 0 0 1 26 50 146 297 381 445 519 630 771 877 920 937 983 1072 1133
0 0 0 0 0 0 0 0 0 0 0 0 0 0 0 0 0 0 0 0 0 0 0 0 0 0 0 0 0 0 0 0 0 0 0 0 0 0 0 0 0 0 0 0 0 0 0 0 5 41 101 235 366 469 542 636 757 868 964 1004 1031 1102 1182
0 0 0 0 0 0 0 0 0 0 0 0 0 0 0 0 0 0 0 0 0 0 0 0 0 0 0 0 0 0 0 0 0 0 0 0 0 0 0 0 0 0 0 0 0 0 0 0 0 27 88 193 323 457 585 670 753 845 989 1076 1119 1176 1255
0 0 0 0 0 0 0 0 0 0 0 0 0 0 0 0 0 0 0 0 0 0 0 0 0 0 0 0 0 0 0 0 0 0 0 0 0 0 0 0 0 0 0 0 0 0 0 0 0 1 46 145 284 467 601 688 762 852 1000 1138 1231 1262 1327
0 0 0 0 0 0 0 0 0 0 0 0 0 0 0 0 0 0 0 0 0 0 0 0 0 0 0 0 0 0 0 0 0 0 0 0 0 0 0 0 0 0 0 0 0 0 0 0 0 0 23 122 276 454 598 706 798 880 1015 1202 1296 1354 1420
0 0 0 0 0 0 0 0 0 0 0 0 0 0 0 0 0 0 0 0 0 0 0 0 0 0 0 0 0 0 0 0 0 0 0 0 0 0 0 0 0 0 0 0 0 0 0 0 0 0 17 109 271 458 598 724 828 934 1092 1219 1373 1452 1498
0 0 0 0 0 0 0 0 0 0 0 0 0 0 0 0 0 0 0 0 0 0 0 0 0 0 0 0 0 0 0 0 0 0 0 0 0 0 0 0 0 0 0 0 0 0 0 0 0 0 14 124 286 485 632 766 880 975 1100 1286 1420 1521 1582
0 0 0 0 0 0 0 0 0 0 0 0 0 0 0 0 0 0 0 0 0 0 0 0 0 0 0 0 0 0 0 0 0 0 0 0 0 0 0 0 0 0 0 0 0 0 0 0 0 2 24 113 283 469 636 788 918 1024 1153 1352 1444 1553 1676
0 0 0 0 0 0 0 0 0 0 0 0 0 0 0 0 0 0 0 0 0 0 0 0 0 0 0 0 0 0 0 0 0 0 0 0 0 0 0 0 0 0 0 0 0 0 0 6 16 24 69 141 308 471 653 811 944 1038 1174 1361 1479 1621 1710
0 0 0 0 0 0 0 0 0 0 0 0 0 0 0 0 0 0 0 0 0 0 0 0 0 0 0 0 0 0 0 0 0 0 0 0 0 0 0 0 0 0 0 0 0 5 9 28 64 86 148 204 354 540 733 854 1002 1094 1214 1386 1547 1674 1750
0 0 0 0 0 0 0 0 0 0 0 0 0 0 0 0 0 0 0 0 0 0 0 0 0 0 0 0 0 0 0 0 0 0 0 0 0 0 0 0 0 0 0 0 0 1 38 76 132 181 232 264 402 573 756 896 1028 1178 1307 1437 1591 1703 1812
0 0 0 0 0 0 0 0 0 0 0 0 0 0 0 0 0 0 0 0 0 0 0 0 0 0 6 155 596 1120 812 980 860 544 99 0 0 0 0 0 0 0 0 0 0 0 21 76 156 260 302 363 533 633 816 954 1094 1270 1356 1488 1589 1736 1844
0 0 0 0 0 0 0 0 0 0 0 0 0 0 0 0 0 0 0 0 0 0 0 0 0 0 112 822 904 1129 995 878 1066 820 776 884 930 279 0 0 0 0 0 0 0 10 98 186 203 281 451 521 617 740 855 1010 1107 1245 1413 1510 1606 1732 1859
0 0 0 0 0 0 0 0 0 0 0 0 0 0 0 0 0 0 0 0 0 0 0 0 0 0 0 57 534 1085 1292 963 956 1081 977 1032 1186 1080 944 492 0 0 0 0 0 45 199 255 277 326 522 661 765 852 924 1031 1163 1262 1408 1536 1628 1742 1881
0 0 0 0 0 0 0 0 0 0 0 0 0 0 0 0 0 0 0 0 0 0 0 0 0 0 0 0 2 1145 1169 1268 1029 1069 1159 1023 1111 1092 1020 1036 974 845 332 0 16 53 179 324 397 513 556 780 970 995 1064 1131 1211 1324 1414 1572 1668 1784 1888
0 0 0 0 0 0 0 0 0 0 0 0 0 0 0 0 0 241 0 0 0 0 0 0 0 0 0 0 0 1266 1052 1050 1135 1083 1132 1233 1352 1515 1512 1326 1277 1261 1148 789 233 140 158 340 518 636 651 806 1033 1135 1208 1232 1299 1379 1456 1579 1684 1780 1939
0 0 0 0 0 0 0 0 0 0 0 0 0 0 0 306 0 0 0 0 379 0 0 0 0 0 0 0 0 1317 1246 951 1106 1075 1216 1442 1729 1926 2033 1965 1890 1690 1237 865 826 765 704 631 524 746 813 868 1046 1208 1305 1352 1372 1415 1484 1586 1669 1829 1965
0 0 0 0 0 0 0 0 0 0 0 0 0 0 0 0 0 172 453 600 424 0 0 0 0 0 318 108 1117 1304 1262 1134 1107 1228 1196 1302 1589 1933 2302 2491 2374 2306 1933 1508 1205 1289 1268 939 893 813 978 983 1015 1133 1277 1369 1440 1502 1532 1543 1616 1768 1944
0 0 0 0 0 0 0 0 0 0 0 0 0 0 0 25 120 670 670 782 689 41 2 6 18 351 501 1182 1460 1346 1266 1277 1160 1118 1279 1338 1369 1529 1954 2469 2878 2845 2650 2386 2150 2058 1980 1609 1146 1097 1048 1120 1137 1224 1268 1338 1476 1555 1567 1591 1648 1732 1797
0 1 0 0 0 16 1 3 0 0 0 0 0 0 0 177 754 639 784 626 666 186 151 255 487 994 1264 1125 1208 1256 1180 1187 1143 1163 1164 1120 1086 1202 1404 1718 2066 2659 3088 3029 2815 2611 2326 2152 1783 1396 1242 1227 1233 1368 1452 1502 1516 1530 1575 1646 1683 1711 1760
2 1 0 0 0 58 22 30 0 0 0 0 0 0 376 674 683 756 620 720 523 501 434 1053 1255 1165 1268 1189 1100 1160 1128 1076 1090 1089 1172 1153 1104 1132 1342 1495 1676 1940 2316 2788 3204 3207 2928 2603 2375 2174 1899 1756 1488 1345 1530 1607 1624 1614 1642 1694 1730 1751 1769
112 5 0 12 40 123 134 89 18 53 12 0 0 285 592 474 936 692 954 860 854 902 1271 1516 1406 1350 1151 1177 1068 965 956 785 822 888 918 948 952 1000 1123 1273 1398 1590 1787 1964 2244 2814 3328 3397 3092 2746 2670 2424 2268 2140 2038 1960 1896 1811 1778 1845 1837 1844 1866
91 65 294 256 219 154 132 36 48 58 73 63 162 544 514 592 642 1010 1060 1265 1256 1245 1205 1225 1129 991 965 942 777 747 702 635 620 694 540 504 648 864 965 998 1223 1262 1532 1646 1796 1862 2083 2511 3222 3497 3422 3264 3004 2851 2719 2736 2672 2512 2398 2318 2247 2113 2098
50 64 379 247 93 155 131 68 108 95 68 175 385 622 523 581 630 930 1014 1201 1024 834 770 825 928 863 753 710 676 618 590 552 464 424 486 570 593 642 658 1025 1063 1234 1238 1491 1581 1617 1605 1929 1975 2121 2588 3194 3594 3522 3430 3287 3220 3094 2954 2876 2851 2833 2805
26 3 292 237 202 154 158 63 116 118 171 414 656 528 394 448 593 539 458 452 546 594 588 600 654 693 652 657 670 664 642 646 632 550 517 616 712 676 698 796 924 1002 1168 1403 1697 1958 1893 2037 2064 2044 2019 2152 2232 2538 3066 3519 3642 3484 3403 3236 3247 3190 3184
10 45 320 302 198 132 150 25 70 102 148 442 620 472 374 324 273 163 112 312 435 452 494 620 611 757 806 888 911 846 811 852 814 725 664 668 676 713 750 791 844 954 1054 1168 1617 2032 2005 2184 2226 2126 2125 2165 2156 2230 2220 2248 2494 3110 3561 3674 3706 3619 3508
11 3 220 302 38 6 69 49 56 58 75 273 204 292 288 114 205 141 162 39 55 499 460 512 648 808 916 895 970 980 970 912 914 894 848 830 758 780 802 921 1003 1000 1020 1176 1690 1887 1805 1791 1827 1893 1962 1934 1928 1869 2011 2185 2290 2456 2681 3013 3258 3448 3511
5 37 242 319 308 10 50 42 65 74 22 76 218 84 156 25 20 14 97 65 18 75 490 444 716 826 1030 1106 1078 1058 992 983 986 978 958 924 940 893 912 1058 1184 1203 1119 1146 1243 1252 1345 1425 1618 1746 1808 1828 1701 1537 1451 1458 1639 1944 2313 2575 2710 2934 3266
6 53 220 314 197 50 100 110 114 58 0 3 64 127 69 50 43 7 82 244 201 43 294 494 617 658 760 1053 1014 944 995 992 952 1049 1041 1068 1101 1179 1250 1297 1384 1443 1402 1386 1416 1420 1447 1532 1488 1534 1624 1576 1507 1389 1293 1370 1515 1719 1896 2112 2315 2456 2623
34 46 44 186 88 66 52 50 90 30 0 8 34 65 41 27 9 17 298 472 473 529 564 496 396 452 760 960 865 921 968 980 1034 1027 1040 997 926 976 1018 1090 1155 1171 1202 1251 1283 1298 1298 1347 1411 1319 1313 1308 1217 1140 1203 1210 1278 1348 1454 1582 1739 1903 2046

ECMWFFLT2_con_mucape_033.txt.gz
CAPE
0 0 0 0 0 0 0 0 0 0 0 0 0 0 0 0 0 0 0 0 0 0 0 0 0 0 0 0 0 0 5 52 236 347 532 720 761 868 976 1030 1092 1228 1302 1479 1366 1348 1248 1220 1244 1287 1497 1742 1707 1942 1983 2104 2176 2232 2227 2230 2210 2212 2349
0 0 0 0 0 0 0 0 0 0 0 0 0 0 0 0 0 0 0 0 0 0 0 4 0 0 0 0 0 0 1 26 53 75 299 514 607 716 850 1004 1128 1224 1194 1247 1214 1205 1165 1142 1145 1243 1556 1562 1812 1966 1748 1962 2184 2176 2161 2142 2050 2144 2304
0 0 0 0 0 0 0 0 0 0 0 0 0 0 0 0 0 0 0 0 0 0 0 0 0 0 0 0 0 0 0 0 0 8 81 266 428 553 738 896 1058 1004 1039 1112 1122 1028 1028 1073 1192 1404 1514 1375 1525 1585 1718 1717 1934 1970 2066 1907 1917 2080 2168
0 0 0 0 0 0 0 0 0 0 0 0 0 0 0 0 0 0 0 0 0 0 0 0 0 0 0 0 0 0 0 0 0 7 3 48 196 364 550 640 738 885 924 906 920 948 916 965 1082 1151 1126 1146 1131 1286 1575 1635 1684 1966 1961 1918 1944 2056 2070
0 0 0 0 0 0 0 0 0 0 0 0 0 0 0 0 0 0 0 0 0 0 0 0 0 0 0 2 2 14 4 0 0 3 14 18 43 118 257 420 603 734 794 794 800 845 845 841 943 948 925 1032 1048 1110 1335 1461 1702 1822 1833 1825 1878 2081 1936
0 0 0 0 0 0 0 0 0 0 0 0 0 0 0 0 0 0 0 0 0 0 0 0 0 0 0 2 0 0 0 0 4 0 0 28 36 44 102 172 370 530 690 728 718 760 788 737 768 795 787 900 973 1010 1131 1299 1398 1562 1586 1738 1974 1974 1972
0 0 0 0 0 0 0 0 0 0 0 0 0 0 0 0 0 0 0 0 0 0 0 0 0 0 0 0 0 0 0 0 0 0 1 11 115 36 0 16 37 182 470 664 698 838 897 778 798 717 732 778 892 964 1044 1177 1252 1387 1431 1531 1759 2120 2116
0 0 0 0 0 0 0 0 0 0 0 0 0 0 0 0 0 0 0 0 0 0 14 0 0 9 0 0 0 49 0 0 0 2 1 26 186 269 14 0 0 29 254 632 845 1107 1275 1106 1061 771 774 850 832 902 994 1064 1168 1254 1335 1450 1725 2076 2055
0 0 0 0 0 0 0 0 0 0 0 0 0 0 0 0 0 0 0 0 0 0 60 0 0 0 0 0 0 0 0 18 12 0 24 97 452 607 215 122 8 14 15 425 714 962 1088 1165 1000 969 957 912 818 905 950 969 1117 1191 1336 1438 1565 1790 1869
0 0 0 0 0 0 0 0 0 0 0 0 0 0 0 0 0 0 0 0 0 0 0 0 0 0 0 0 0 0 0 0 4 30 22 255 295 861 832 785 351 74 168 538 600 805 1015 1261 1036 1178 1130 883 792 902 1020 993 1062 1202 1284 1374 1459 1667 1703
0 0 0 0 0 0 0 0 0 0 0 0 0 0 0 0 0 0 0 0 0 0 0 0 0 0 0 0 23 0 0 0 0 12 80 172 591 744 440 1011 762 828 742 482 498 734 892 771 996 1071 928 883 828 1135 1151 988 1034 1168 1316 1428 1632 1591 1649
0 0 0 0 0 0 0 0 0 0 0 0 0 0 0 0 0 0 0 2 0 0 0 0 93 46 84 42 90 23 22 45 2 4 256 32 9 86 367 582 911 976 599 548 606 692 804 832 1081 879 960 911 981 1208 1212 1098 1045 1185 1390 1618 1768 1778 1742
0 0 0 0 0 0 0 0 0 0 0 0 0 0 0 0 0 0 11 22 0 0 0 0 1 112 107 0 10 40 0 0 10 100 17 17 38 320 280 946 1256 1111 941 985 899 866 852 560 712 826 946 959 1217 1381 1176 1240 1100 1192 1626 1782 1948 1870 1936
0 0 0 0 0 0 0 0 0 0 0 0 0 0 0 0 0 0 0 25 0 0 0 0 0 0 0 0 56 0 0 0 50 38 124 0 0 0 102 510 668 1267 1160 1180 1249 1012 863 592 804 677 968 1061 1047 1054 1190 1349 1287 1269 1512 1972 2187 1863 1950
0 0 0 0 0 0 0 0 0 0 0 0 0 0 0 0 0 0 0 0 0 0 0 0 0 50 0 0 0 0 0 0 0 2 0 287 224 90 194 564 417 880 1140 1210 1344 1210 1219 898 879 802 912 902 1043 887 994 1060 1379 1362 1545 2120 1938 1914 2058
0 0 0 0 0 0 0 0 0 0 0 0 0 0 0 0 0 0 0 0 0 0 0 0 0 0 0 0 0 0 0 0 2 0 52 192 444 582 258 391 237 480 636 1021 1226 1108 778 753 786 781 803 914 912 806 924 1044 1181 1309 1429 1622 1678 2166 2421
0 0 0 0 0 0 0 0 0 0 0 0 0 0 0 0 0 0 0 0 0 0 0 0 0 0 0 0 0 0 0 0 0 4 22 138 319 454 571 284 367 100 98 423 1175 948 647 685 626 544 683 653 938 1009 1112 1208 1230 1252 1412 1619 2063 2360 2436
0 0 0 0 0 0 0 0 0 0 0 0 0 0 0 0 0 0 0 0 0 0 0 0 0 0 0 0 0 0 0 4 223 0 47 90 144 204 170 88 61 84 160 166 232 675 1039 810 602 494 499 565 941 907 1063 1316 1322 1547 1806 1783 2166 2188 2602
0 0 0 0 0 0 0 0 0 0 0 0 0 0 0 0 0 0 0 0 0 0 0 0 0 0 0 268 610 18 102 112 40 410 481 1344 1346 1469 1657 1490 1082 804 525 434 451 546 525 514 518 542 576 595 755 816 1073 1278 1558 1849 2009 2104 2236 2470 2726
0 0 0 0 0 0 0 0 0 0 0 0 0 0 0 0 0 0 0 0 0 0 0 0 0 24 724 624 1771 1878 1712 1748 2077 1869 1876 1976 2015 1996 2242 2093 1966 1741 1085 632 380 430 460 526 543 576 604 498 485 563 740 1092 1320 1564 2057 2291 2167 2392 2791
0 0 0 0 0 0 0 0 0 0 0 0 0 0 0 0 0 0 14 49 0 0 0 0 0 40 95 205 631 1422 1536 1675 1591 1662 1901 1790 1984 1918 2002 2000 2009 2071 1957 1358 718 506 566 405 417 506 480 505 516 584 740 952 1607 1558 1799 2212 2314 2713 2598
0 0 0 0 0 0 1 0 0 0 0 0 0 0 0 0 0 0 0 7 115 420 432 0 0 0 0 0 0 1032 1387 1392 1396 1386 1334 1378 1506 1707 1761 1948 1999 2272 2442 2390 1720 568 396 580 452 599 636 694 784 1020 1116 1290 1558 1430 1776 2375 2780 2904 2873
0 0 0 0 0 0 46 3 0 0 0 0 0 0 0 0 0 0 0 0 42 286 728 800 0 0 0 0 0 1720 1622 1428 1244 1392 1486 1467 1542 1714 1818 1940 2164 2279 2523 2597 2414 1005 645 626 789 976 858 869 1040 1598 1759 1169 1412 1822 2389 2772 2894 2876 2964
0 0 0 0 0 0 0 0 0 0 2 0 0 0 5 0 0 0 0 0 6 233 600 679 124 0 0 0 0 1611 1554 1231 1112 1156 1466 1716 1731 1890 1966 2120 2110 2366 2684 2396 1581 940 725 1196 1344 1352 995 1310 1464 1974 1691 1379 1588 2216 2483 2328 2968 2875 2801
0 0 0 0 0 0 0 0 17 16 0 0 0 0 18 0 0 0 0 0 0 214 426 536 91 0 518 1255 1058 1182 1244 1015 954 1164 1298 1804 2000 2218 2177 1977 1990 2515 2518 2710 2527 2351 2702 2399 1542 1183 1132 1675 2172 2213 2338 2148 2028 1914 2315 2785 3121 3109 3131
0 0 0 0 0 8 0 32 19 20 0 0 0 0 0 0 0 0 0 0 0 38 321 446 301 738 856 940 938 844 933 1055 768 1455 1718 2016 2339 2618 2470 2094 1918 2430 2305 2400 2382 2277 2206 2125 1721 1697 2080 2413 2843 2865 2680 2512 2568 2314 2906 3206 3159 3132 3284
0 0 0 0 0 0 0 55 15 60 0 15 31 0 0 0 0 0 0 0 0 7 80 378 231 565 573 581 780 868 889 933 1128 1288 1549 1794 2248 2789 2874 2690 2394 2101 2164 1915 1803 1808 1873 2010 2265 2302 1954 2596 2757 2971 2942 3026 2806 2854 3106 3192 3376 3478 3520
0 0 0 0 20 256 190 15 20 54 21 3 0 0 0 0 0 0 0 2 91 194 46 298 413 456 500 688 1065 1106 982 1013 1035 1128 1150 1163 1390 1827 2298 2762 3012 2908 2668 2384 2309 2298 2092 1732 2021 2594 3287 2776 2928 2927 3548 3092 3019 2837 3188 3548 3630 3546 3485
33 29 103 106 31 13 98 126 173 68 19 2 0 0 0 0 0 0 0 73 134 116 273 349 351 144 672 1064 1147 1182 1084 982 1002 945 979 995 964 1197 1545 1958 2426 2842 3177 3236 3042 2861 2653 2542 2308 1991 2468 3504 3320 3133 2730 3165 3964 3034 3174 3494 3410 3378 3137
69 32 0 0 0 2 78 156 230 81 13 0 23 120 210 245 351 232 176 560 421 257 324 349 455 652 916 1176 1118 976 990 914 838 852 778 805 726 720 1010 1284 1557 1710 2068 2467 2830 3168 3366 3360 3170 2958 2644 2218 2114 2109 2248 2608 3540 3886 3470 3334 3479 3518 3532
1 0 216 37 32 116 157 205 126 106 19 4 50 209 244 335 310 461 562 804 804 792 866 931 1006 1014 1017 972 892 716 624 615 330 402 495 536 545 636 729 920 1133 1200 1205 1387 1474 1641 2024 2283 2819 3221 3401 3379 3074 2916 2998 2900 3060 3669 3886 3374 3496 3504 3464
4 0 6 0 0 44 100 53 100 82 21 0 10 173 204 260 316 381 480 758 956 1018 1062 1030 1012 829 704 421 6 41 94 212 390 416 483 538 670 695 882 915 1004 1153 1323 1384 1405 1462 1595 1949 1964 2054 2161 2321 2723 3135 3392 3522 3475 3559 4014 4146 3537 3452 3444
4 1 0 0 0 0 42 77 31 116 53 39 48 82 188 275 334 365 478 599 748 782 806 650 612 533 454 534 459 510 66 134 267 400 406 522 648 751 881 1030 1053 1129 1102 1061 1054 1170 1334 1518 1528 1512 1504 1557 1767 2019 2153 2376 2893 3423 3608 3568 3688 3930 4010
8 3 0 145 72 112 109 54 115 142 108 159 99 43 116 216 74 375 420 450 453 357 494 517 646 684 632 623 660 640 644 612 667 672 661 747 839 862 844 923 964 1068 1148 1122 1098 1091 1138 1278 1321 1250 1335 1326 1225 1281 1429 1708 2214 2459 2707 3083 3294 3399 3470
2 0 2 95 10 18 2 0 0 21 188 248 298 64 42 44 11 178 219 192 314 325 449 443 563 635 703 699 689 665 663 672 711 742 799 879 963 860 808 825 838 861 900 954 988 1025 1156 1128 1151 1238 1197 1120 1016 969 995 1180 1490 1738 2100 2381 2592 2717 2934
6 0 0 5 10 8 8 12 17 39 102 256 147 27 5 47 21 73 112 265 267 352 305 362 507 581 581 590 551 590 624 634 654 580 571 584 624 720 736 714 710 740 748 876 942 972 1013 1120 1181 1240 1262 1112 958 970 936 896 892 1082 1301 1421 1447 1862 2062
14 4 9 16 10 4 2 66 47 30 32 92 124 1 12 49 26 24 11 70 272 261 122 281 341 340 428 428 495 509 481 490 504 542 484 515 614 713 755 752 725 700 624 665 789 882 969 1040 1089 1104 1020 1307 1344 1257 1303 1255 919 814 772 942 895 935 975